Time,TemperatureF,DewpointF,PressureIn,WindDirection,WindDirectionDegrees,WindSpeedMPH,WindSpeedGustMPH,Humidity,HourlyPrecipIn,Conditions,Clouds,dailyrainin,SolarRadiationWatts/m^2,SoftwareType,DateUTC
2013-06-28 00:01:00,71.5,67.8,29.71,SW,234,0.0,3.0,88,0.00,,SKC,0.02,0.00,VWS V14.01,2013-06-28 04:01:00,
2013-06-28 00:06:00,71.6,67.9,29.71,SW,234,0.0,1.0,88,0.00,,SKC,0.00,0.00,VWS V14.01,2013-06-28 04:06:00,
2013-06-28 00:07:00,71.6,67.9,29.71,SW,234,0.0,1.0,88,0.00,,SKC,0.00,0.00,VWS V14.01,2013-06-28 04:07:00,
2013-06-28 00:11:00,71.5,67.8,29.71,SW,234,0.0,1.0,88,0.00,,SKC,0.00,0.00,VWS V14.01,2013-06-28 04:11:00,
2013-06-28 00:12:00,71.5,67.8,29.71,SW,234,0.0,1.0,88,0.00,,SKC,0.00,0.00,VWS V14.01,2013-06-28 04:12:00,
2013-06-28 00:16:00,71.4,67.7,29.71,SW,234,0.0,1.0,88,0.00,,SKC,0.00,0.00,VWS V14.01,2013-06-28 04:16:00,
2013-06-28 00:17:00,71.4,67.7,29.71,SW,234,0.0,1.0,88,0.00,,SKC,0.00,0.00,VWS V14.01,2013-06-28 04:17:00,
2013-06-28 00:21:00,71.3,67.9,29.71,SW,234,0.0,1.0,89,0.00,,SKC,0.00,0.00,VWS V14.01,2013-06-28 04:21:00,
2013-06-28 00:22:00,71.3,67.9,29.71,SW,234,0.0,1.0,89,0.00,,SKC,0.00,0.00,VWS V14.01,2013-06-28 04:22:00,
2013-06-28 00:26:00,71.2,67.8,29.71,SW,234,0.0,1.0,89,0.00,,SKC,0.00,0.00,VWS V14.01,2013-06-28 04:26:00,
2013-06-28 00:27:00,71.2,67.8,29.71,SW,234,0.0,1.0,89,0.00,,SKC,0.00,0.00,VWS V14.01,2013-06-28 04:27:00,
2013-06-28 00:29:00,71.2,67.8,29.71,SW,233,2.0,2.0,89,0.00,,SKC,0.00,0.00,VWS V14.01,2013-06-28 04:29:00,
2013-06-28 00:31:00,71.3,68.2,29.71,SW,232,2.0,2.0,90,0.00,,SKC,0.00,0.00,VWS V14.01,2013-06-28 04:31:00,
2013-06-28 00:33:00,71.3,67.9,29.71,SW,232,0.0,2.0,89,0.00,,SKC,0.00,0.00,VWS V14.01,2013-06-28 04:33:00,
2013-06-28 00:34:00,71.3,67.9,29.71,SW,232,0.0,2.0,89,0.00,,SKC,0.00,0.00,VWS V14.01,2013-06-28 04:34:00,
2013-06-28 00:36:00,71.4,68.0,29.72,SW,232,0.0,2.0,89,0.00,,SKC,0.00,0.00,VWS V14.01,2013-06-28 04:36:00,
2013-06-28 00:37:00,71.4,68.0,29.72,SW,232,0.0,2.0,89,0.00,,SKC,0.00,0.00,VWS V14.01,2013-06-28 04:37:00,
2013-06-28 00:38:00,71.4,68.0,29.71,SW,232,2.0,2.0,89,0.00,,SKC,0.00,0.00,VWS V14.01,2013-06-28 04:38:00,
2013-06-28 00:40:00,71.3,67.9,29.71,SW,232,2.0,3.0,89,0.00,,SKC,0.00,0.00,VWS V14.01,2013-06-28 04:40:00,
2013-06-28 00:42:00,71.4,68.0,29.71,SW,232,0.0,3.0,89,0.00,,SKC,0.00,0.00,VWS V14.01,2013-06-28 04:42:00,
2013-06-28 00:43:00,71.3,67.9,29.71,SW,231,0.0,3.0,89,0.00,,SKC,0.00,0.00,VWS V14.01,2013-06-28 04:43:00,
2013-06-28 00:45:00,71.3,68.2,29.71,SW,227,0.0,3.0,90,0.00,,SKC,0.00,0.00,VWS V14.01,2013-06-28 04:45:00,
2013-06-28 00:47:00,71.5,68.1,29.71,SW,227,0.0,3.0,89,0.00,,SKC,0.00,0.00,VWS V14.01,2013-06-28 04:47:00,
2013-06-28 00:48:00,71.6,68.2,29.71,SW,227,0.0,3.0,89,0.00,,SKC,0.00,0.00,VWS V14.01,2013-06-28 04:48:00,
2013-06-28 00:50:00,71.6,68.2,29.71,SW,227,0.0,3.0,89,0.00,,SKC,0.00,0.00,VWS V14.01,2013-06-28 04:50:00,
2013-06-28 00:52:00,71.5,68.1,29.71,SW,227,0.0,3.0,89,0.00,,SKC,0.00,0.00,VWS V14.01,2013-06-28 04:52:00,
2013-06-28 00:53:00,71.5,68.1,29.71,SW,227,0.0,3.0,89,0.00,,SKC,0.00,0.00,VWS V14.01,2013-06-28 04:53:00,
2013-06-28 00:56:00,71.4,68.0,29.71,SW,227,0.0,3.0,89,0.00,,SKC,0.00,0.00,VWS V14.01,2013-06-28 04:56:00,
2013-06-28 00:57:00,71.3,67.9,29.71,SW,227,0.0,3.0,89,0.00,,SKC,0.00,0.00,VWS V14.01,2013-06-28 04:57:00,
2013-06-28 00:58:00,71.2,67.8,29.71,SW,227,0.0,3.0,89,0.00,,SKC,0.00,0.00,VWS V14.01,2013-06-28 04:58:00,
2013-06-28 00:59:00,71.2,67.8,29.71,SW,227,0.0,3.0,89,0.00,,SKC,0.00,0.00,VWS V14.01,2013-06-28 04:59:00,
2013-06-28 01:01:00,71.0,67.6,29.71,SW,227,0.0,3.0,89,0.00,,SKC,0.00,0.00,VWS V14.01,2013-06-28 05:01:00,
2013-06-28 01:02:00,71.0,67.6,29.71,SW,227,0.0,0.0,89,0.00,,SKC,0.00,0.00,VWS V14.01,2013-06-28 05:02:00,
2013-06-28 01:03:00,70.9,67.5,29.71,SW,227,0.0,0.0,89,0.00,,SKC,0.00,0.00,VWS V14.01,2013-06-28 05:03:00,
2013-06-28 01:04:00,70.9,67.5,29.71,SW,227,0.0,0.0,89,0.00,,SKC,0.00,0.00,VWS V14.01,2013-06-28 05:04:00,
2013-06-28 01:06:00,70.8,67.7,29.71,SW,227,1.0,1.0,90,0.00,,SKC,0.00,0.00,VWS V14.01,2013-06-28 05:06:00,
2013-06-28 01:07:00,70.7,67.6,29.71,SW,227,0.0,2.0,90,0.00,,SKC,0.00,0.00,VWS V14.01,2013-06-28 05:07:00,
2013-06-28 01:08:00,70.7,67.6,29.71,SW,227,0.0,2.0,90,0.00,,SKC,0.00,0.00,VWS V14.01,2013-06-28 05:08:00,
2013-06-28 01:09:00,70.7,67.6,29.71,SW,227,0.0,2.0,90,0.00,,SKC,0.00,0.00,VWS V14.01,2013-06-28 05:09:00,
2013-06-28 01:11:00,70.6,67.5,29.71,SW,227,2.0,2.0,90,0.00,,SKC,0.00,0.00,VWS V14.01,2013-06-28 05:11:00,
2013-06-28 01:13:00,70.5,67.8,29.72,SW,227,0.0,2.0,91,0.00,,SKC,0.00,0.00,VWS V14.01,2013-06-28 05:13:00,
2013-06-28 01:14:00,70.5,67.8,29.72,SW,227,0.0,2.0,91,0.00,,SKC,0.00,0.00,VWS V14.01,2013-06-28 05:14:00,
2013-06-28 01:16:00,70.4,67.7,29.72,SW,227,0.0,2.0,91,0.00,,SKC,0.00,0.00,VWS V14.01,2013-06-28 05:16:00,
2013-06-28 01:18:00,70.4,67.7,29.72,SW,227,0.0,2.0,91,0.00,,SKC,0.00,0.00,VWS V14.01,2013-06-28 05:18:00,
2013-06-28 01:19:00,70.3,67.6,29.72,SW,227,0.0,2.0,91,0.00,,SKC,0.00,0.00,VWS V14.01,2013-06-28 05:19:00,
2013-06-28 01:20:00,70.3,67.6,29.71,SW,227,0.0,2.0,91,0.00,,SKC,0.00,0.00,VWS V14.01,2013-06-28 05:20:00,
2013-06-28 01:21:00,70.2,67.4,29.71,SW,227,0.0,2.0,91,0.00,,SKC,0.00,0.00,VWS V14.01,2013-06-28 05:21:00,
2013-06-28 01:23:00,70.2,67.4,29.71,SW,227,0.0,2.0,91,0.00,,SKC,0.00,0.00,VWS V14.01,2013-06-28 05:23:00,
2013-06-28 01:24:00,70.1,67.4,29.71,SW,227,0.0,2.0,91,0.00,,SKC,0.00,0.00,VWS V14.01,2013-06-28 05:24:00,
2013-06-28 01:25:00,70.1,67.4,29.71,SW,227,0.0,2.0,91,0.00,,SKC,0.00,0.00,VWS V14.01,2013-06-28 05:25:00,
2013-06-28 01:26:00,69.9,67.2,29.71,SW,227,0.0,2.0,91,0.00,,SKC,0.00,0.00,VWS V14.01,2013-06-28 05:26:00,
2013-06-28 01:28:00,69.7,67.0,29.71,SW,227,0.0,2.0,91,0.00,,SKC,0.00,0.00,VWS V14.01,2013-06-28 05:28:00,
2013-06-28 01:29:00,69.6,66.9,29.71,SW,227,0.0,2.0,91,0.00,,SKC,0.00,0.00,VWS V14.01,2013-06-28 05:29:00,
2013-06-28 01:30:00,69.5,66.8,29.71,SW,227,0.0,2.0,91,0.00,,SKC,0.00,0.00,VWS V14.01,2013-06-28 05:30:00,
2013-06-28 01:31:00,69.5,66.8,29.71,SW,227,0.0,0.0,91,0.00,,SKC,0.00,0.00,VWS V14.01,2013-06-28 05:31:00,
2013-06-28 01:34:00,69.5,67.1,29.70,SW,227,0.0,0.0,92,0.00,,SKC,0.00,0.00,VWS V14.01,2013-06-28 05:34:00,
2013-06-28 01:35:00,69.4,67.0,29.70,SW,227,0.0,1.0,92,0.00,,SKC,0.00,0.00,VWS V14.01,2013-06-28 05:35:00,
2013-06-28 01:36:00,69.4,67.0,29.70,SW,227,0.0,1.0,92,0.00,,SKC,0.00,0.00,VWS V14.01,2013-06-28 05:36:00,
2013-06-28 01:37:00,69.4,67.0,29.70,SW,227,0.0,1.0,92,0.00,,SKC,0.00,0.00,VWS V14.01,2013-06-28 05:37:00,
2013-06-28 01:39:00,69.4,67.0,29.70,SW,227,0.0,1.0,92,0.00,,SKC,0.00,0.00,VWS V14.01,2013-06-28 05:39:00,
2013-06-28 01:40:00,69.3,66.9,29.70,SW,227,0.0,1.0,92,0.00,,SKC,0.00,0.00,VWS V14.01,2013-06-28 05:40:00,
2013-06-28 01:41:00,69.4,67.3,29.70,SW,227,0.0,1.0,93,0.00,,SKC,0.00,0.00,VWS V14.01,2013-06-28 05:41:00,
2013-06-28 01:42:00,69.3,67.2,29.70,SW,227,0.0,1.0,93,0.00,,SKC,0.00,0.00,VWS V14.01,2013-06-28 05:42:00,
2013-06-28 01:44:00,69.3,67.2,29.70,SW,227,0.0,1.0,93,0.00,,SKC,0.00,0.00,VWS V14.01,2013-06-28 05:44:00,
2013-06-28 01:45:00,69.3,67.2,29.70,SW,227,0.0,1.0,93,0.00,,SKC,0.00,0.00,VWS V14.01,2013-06-28 05:45:00,
2013-06-28 01:46:00,69.3,67.2,29.70,SW,227,0.0,1.0,93,0.00,,SKC,0.00,0.00,VWS V14.01,2013-06-28 05:46:00,
2013-06-28 01:47:00,69.3,67.2,29.70,SW,227,0.0,1.0,93,0.00,,SKC,0.00,0.00,VWS V14.01,2013-06-28 05:47:00,
2013-06-28 01:50:00,69.2,67.1,29.70,SW,227,0.0,2.0,93,0.00,,SKC,0.00,0.00,VWS V14.01,2013-06-28 05:50:00,
2013-06-28 01:51:00,69.1,67.0,29.70,SW,227,0.0,2.0,93,0.00,,SKC,0.00,0.00,VWS V14.01,2013-06-28 05:51:00,
2013-06-28 01:52:00,69.1,67.0,29.70,SW,227,0.0,2.0,93,0.00,,SKC,0.00,0.00,VWS V14.01,2013-06-28 05:52:00,
2013-06-28 01:55:00,69.0,67.2,29.69,SW,227,0.0,2.0,94,0.00,,SKC,0.00,0.00,VWS V14.01,2013-06-28 05:55:00,
2013-06-28 01:56:00,69.0,67.2,29.69,SW,227,0.0,2.0,94,0.00,,SKC,0.00,0.00,VWS V14.01,2013-06-28 05:56:00,
2013-06-28 01:57:00,69.0,67.2,29.69,SW,227,0.0,2.0,94,0.00,,SKC,0.00,0.00,VWS V14.01,2013-06-28 05:57:00,
2013-06-28 02:00:00,69.0,67.2,29.69,SW,227,0.0,2.0,94,0.00,,SKC,0.00,0.00,VWS V14.01,2013-06-28 06:00:00,
2013-06-28 02:01:00,69.0,67.2,29.69,SW,227,0.0,0.0,94,0.00,,SKC,0.00,0.00,VWS V14.01,2013-06-28 06:01:00,
2013-06-28 02:02:00,68.9,67.1,29.69,SW,227,0.0,0.0,94,0.00,,SKC,0.00,0.00,VWS V14.01,2013-06-28 06:02:00,
2013-06-28 02:05:00,68.7,66.9,29.69,SW,221,0.0,2.0,94,0.00,,SKC,0.00,0.00,VWS V14.01,2013-06-28 06:05:00,
2013-06-28 02:06:00,68.6,66.5,29.69,SW,221,0.0,2.0,93,0.00,,SKC,0.00,0.00,VWS V14.01,2013-06-28 06:06:00,
2013-06-28 02:07:00,68.6,66.5,29.69,SW,221,0.0,2.0,93,0.00,,SKC,0.00,0.00,VWS V14.01,2013-06-28 06:07:00,
2013-06-28 02:10:00,68.5,66.7,29.68,SW,220,2.0,2.0,94,0.00,,SKC,0.00,0.00,VWS V14.01,2013-06-28 06:10:00,
2013-06-28 02:11:00,68.5,66.7,29.68,SW,220,0.0,2.0,94,0.00,,SKC,0.00,0.00,VWS V14.01,2013-06-28 06:11:00,
2013-06-28 02:12:00,68.5,66.7,29.68,SW,220,0.0,2.0,94,0.00,,SKC,0.00,0.00,VWS V14.01,2013-06-28 06:12:00,
2013-06-28 02:13:00,68.5,66.7,29.68,SW,220,0.0,2.0,94,0.00,,SKC,0.00,0.00,VWS V14.01,2013-06-28 06:13:00,
2013-06-28 02:16:00,68.4,66.6,29.68,SW,220,1.0,2.0,94,0.00,,SKC,0.00,0.00,VWS V14.01,2013-06-28 06:16:00,
2013-06-28 02:17:00,68.4,66.6,29.68,SW,220,0.0,2.0,94,0.00,,SKC,0.00,0.00,VWS V14.01,2013-06-28 06:17:00,
2013-06-28 02:18:00,68.3,66.5,29.68,SW,220,1.0,2.0,94,0.00,,SKC,0.00,0.00,VWS V14.01,2013-06-28 06:18:00,
2013-06-28 02:21:00,68.2,66.7,29.67,SW,220,1.0,3.0,95,0.00,,SKC,0.00,0.00,VWS V14.01,2013-06-28 06:21:00,
2013-06-28 02:22:00,68.1,66.6,29.67,SW,234,4.0,4.0,95,0.00,,SKC,0.00,0.00,VWS V14.01,2013-06-28 06:22:00,
2013-06-28 02:23:00,68.1,66.6,29.67,SSW,207,0.0,5.0,95,0.00,,SKC,0.00,0.00,VWS V14.01,2013-06-28 06:23:00,
2013-06-28 02:26:00,68.3,66.8,29.67,SSW,212,0.0,6.0,95,0.00,,SKC,0.00,0.00,VWS V14.01,2013-06-28 06:26:00,
2013-06-28 02:27:00,68.1,66.3,29.67,SSW,212,0.0,6.0,94,0.00,,SKC,0.00,0.00,VWS V14.01,2013-06-28 06:27:00,
2013-06-28 02:28:00,68.0,66.2,29.67,SSW,208,0.0,6.0,94,0.00,,SKC,0.00,0.00,VWS V14.01,2013-06-28 06:28:00,
2013-06-28 02:31:00,67.7,66.2,29.67,SSW,205,0.0,1.0,95,0.00,,SKC,0.00,0.00,VWS V14.01,2013-06-28 06:31:00,
2013-06-28 02:32:00,67.8,66.3,29.67,SSW,205,2.0,2.0,95,0.00,,SKC,0.00,0.00,VWS V14.01,2013-06-28 06:32:00,
2013-06-28 02:33:00,67.8,66.3,29.67,SSW,205,1.0,2.0,95,0.00,,SKC,0.00,0.00,VWS V14.01,2013-06-28 06:33:00,
2013-06-28 02:36:00,68.1,66.6,29.67,SSW,205,0.0,2.0,95,0.00,,SKC,0.00,0.00,VWS V14.01,2013-06-28 06:36:00,
2013-06-28 02:37:00,68.1,66.6,29.67,SSW,205,0.0,2.0,95,0.00,,SKC,0.00,0.00,VWS V14.01,2013-06-28 06:37:00,
2013-06-28 02:38:00,68.1,66.6,29.67,SSW,205,0.0,2.0,95,0.00,,SKC,0.00,0.00,VWS V14.01,2013-06-28 06:38:00,
2013-06-28 02:41:00,68.2,66.7,29.67,SSW,205,0.0,3.0,95,0.00,,SKC,0.00,0.00,VWS V14.01,2013-06-28 06:41:00,
2013-06-28 02:43:00,68.3,67.1,29.67,SSW,205,3.0,3.0,96,0.00,,SKC,0.00,0.00,VWS V14.01,2013-06-28 06:43:00,
2013-06-28 02:44:00,68.5,67.3,29.67,SSW,207,5.0,5.0,96,0.00,,SKC,0.00,0.00,VWS V14.01,2013-06-28 06:44:00,
2013-06-28 02:46:00,69.0,67.8,29.67,SSW,207,0.0,5.0,96,0.00,,SKC,0.00,0.00,VWS V14.01,2013-06-28 06:46:00,
2013-06-28 02:48:00,69.0,67.5,29.67,SSW,207,0.0,5.0,95,0.00,,SKC,0.00,0.00,VWS V14.01,2013-06-28 06:48:00,
2013-06-28 02:49:00,69.1,67.6,29.66,SSW,207,0.0,5.0,95,0.00,,SKC,0.00,0.00,VWS V14.01,2013-06-28 06:49:00,
2013-06-28 02:51:00,69.1,67.6,29.66,SSW,207,0.0,5.0,95,0.00,,SKC,0.00,0.00,VWS V14.01,2013-06-28 06:51:00,
2013-06-28 02:53:00,69.1,67.6,29.66,SSW,207,0.0,5.0,95,0.00,,SKC,0.00,0.00,VWS V14.01,2013-06-28 06:53:00,
2013-06-28 02:54:00,69.1,67.6,29.66,SSW,207,0.0,5.0,95,0.00,,SKC,0.00,0.00,VWS V14.01,2013-06-28 06:54:00,
2013-06-28 02:57:00,69.0,67.5,29.66,SSW,207,0.0,5.0,95,0.00,,SKC,0.00,0.00,VWS V14.01,2013-06-28 06:57:00,
2013-06-28 02:58:00,69.0,67.5,29.66,SSW,207,0.0,5.0,95,0.00,,SKC,0.00,0.00,VWS V14.01,2013-06-28 06:58:00,
2013-06-28 02:59:00,69.0,67.2,29.66,SSW,207,0.0,5.0,94,0.00,,SKC,0.00,0.00,VWS V14.01,2013-06-28 06:59:00,
2013-06-28 03:02:00,68.8,67.0,29.66,SSW,207,1.0,1.0,94,0.00,,SKC,0.00,0.00,VWS V14.01,2013-06-28 07:02:00,
2013-06-28 03:04:00,68.7,66.9,29.65,SSW,207,0.0,1.0,94,0.00,,SKC,0.00,0.00,VWS V14.01,2013-06-28 07:04:00,
2013-06-28 03:07:00,68.7,66.9,29.65,SSW,207,0.0,1.0,94,0.00,,SKC,0.00,0.00,VWS V14.01,2013-06-28 07:07:00,
2013-06-28 03:09:00,68.7,66.9,29.65,SSW,207,0.0,1.0,94,0.00,,SKC,0.00,0.00,VWS V14.01,2013-06-28 07:09:00,
2013-06-28 03:10:00,68.7,67.2,29.66,SSW,207,0.0,1.0,95,0.00,,SKC,0.00,0.00,VWS V14.01,2013-06-28 07:10:00,
2013-06-28 03:12:00,68.7,66.9,29.65,SSW,207,0.0,1.0,94,0.00,,SKC,0.00,0.00,VWS V14.01,2013-06-28 07:12:00,
2013-06-28 03:14:00,68.6,66.8,29.66,SSW,207,0.0,1.0,94,0.00,,SKC,0.00,0.00,VWS V14.01,2013-06-28 07:14:00,
2013-06-28 03:15:00,68.6,66.8,29.66,SSW,207,0.0,1.0,94,0.00,,SKC,0.00,0.00,VWS V14.01,2013-06-28 07:15:00,
2013-06-28 03:17:00,68.5,66.7,29.65,SSW,207,0.0,1.0,94,0.00,,SKC,0.00,0.00,VWS V14.01,2013-06-28 07:17:00,
2013-06-28 03:19:00,68.4,66.6,29.65,SSW,207,0.0,1.0,94,0.00,,SKC,0.00,0.00,VWS V14.01,2013-06-28 07:19:00,
2013-06-28 03:20:00,68.4,66.6,29.65,SSW,207,0.0,1.0,94,0.00,,SKC,0.00,0.00,VWS V14.01,2013-06-28 07:20:00,
2013-06-28 03:22:00,68.4,66.9,29.65,SSW,207,0.0,1.0,95,0.00,,SKC,0.00,0.00,VWS V14.01,2013-06-28 07:22:00,
2013-06-28 03:25:00,68.4,66.9,29.66,SSW,207,2.0,2.0,95,0.00,,SKC,0.00,0.00,VWS V14.01,2013-06-28 07:25:00,
2013-06-28 03:28:00,68.3,66.8,29.66,North,5,0.0,3.0,95,0.00,,SKC,0.00,0.00,VWS V14.01,2013-06-28 07:28:00,
2013-06-28 03:30:00,68.3,66.8,29.66,North,5,1.0,3.0,95,0.00,,SKC,0.00,0.00,VWS V14.01,2013-06-28 07:30:00,
2013-06-28 03:33:00,68.3,66.8,29.66,North,5,0.0,1.0,95,0.00,,SKC,0.00,0.00,VWS V14.01,2013-06-28 07:33:00,
2013-06-28 03:35:00,68.4,66.9,29.66,North,5,0.0,1.0,95,0.00,,SKC,0.00,0.00,VWS V14.01,2013-06-28 07:35:00,
2013-06-28 03:36:00,68.4,66.9,29.66,North,5,0.0,1.0,95,0.00,,SKC,0.00,0.00,VWS V14.01,2013-06-28 07:36:00,
2013-06-28 03:38:00,68.2,66.7,29.66,North,5,0.0,1.0,95,0.00,,SKC,0.00,0.00,VWS V14.01,2013-06-28 07:38:00,
2013-06-28 03:40:00,68.1,66.6,29.66,North,5,0.0,1.0,95,0.00,,SKC,0.00,0.00,VWS V14.01,2013-06-28 07:40:00,
2013-06-28 03:41:00,68.1,66.6,29.66,North,5,0.0,1.0,95,0.00,,SKC,0.00,0.00,VWS V14.01,2013-06-28 07:41:00,
2013-06-28 03:43:00,68.3,67.1,29.66,North,355,0.0,2.0,96,0.00,,SKC,0.00,0.00,VWS V14.01,2013-06-28 07:43:00,
2013-06-28 03:45:00,68.5,67.3,29.66,North,350,1.0,2.0,96,0.00,,SKC,0.00,0.00,VWS V14.01,2013-06-28 07:45:00,
2013-06-28 03:46:00,68.6,67.1,29.66,North,350,0.0,2.0,95,0.00,,SKC,0.00,0.00,VWS V14.01,2013-06-28 07:46:00,
2013-06-28 03:48:00,69.0,67.5,29.66,WNW,302,1.0,2.0,95,0.00,,SKC,0.00,0.00,VWS V14.01,2013-06-28 07:48:00,
2013-06-28 03:50:00,69.4,67.9,29.66,WNW,303,0.0,2.0,95,0.00,,SKC,0.00,0.00,VWS V14.01,2013-06-28 07:50:00,
2013-06-28 03:51:00,69.5,68.0,29.66,WNW,303,2.0,2.0,95,0.00,,SKC,0.00,0.00,VWS V14.01,2013-06-28 07:51:00,
2013-06-28 03:54:00,70.0,68.5,29.66,NW,321,3.0,7.0,95,0.00,,SKC,0.00,0.00,VWS V14.01,2013-06-28 07:54:00,
2013-06-28 03:55:00,70.2,68.4,29.66,West,281,2.0,8.0,94,0.00,,SKC,0.00,0.00,VWS V14.01,2013-06-28 07:55:00,
2013-06-28 03:56:00,70.3,68.5,29.66,NW,316,2.0,8.0,94,0.00,,SKC,0.00,0.00,VWS V14.01,2013-06-28 07:56:00,
2013-06-28 03:57:00,70.4,68.6,29.66,NNW,327,4.0,8.0,94,0.00,,SKC,0.00,0.00,VWS V14.01,2013-06-28 07:57:00,
2013-06-28 03:59:00,70.6,68.5,29.65,NNW,328,0.0,8.0,93,0.00,,SKC,0.00,0.00,VWS V14.01,2013-06-28 07:59:00,
2013-06-28 04:00:00,70.8,68.7,29.65,NW,317,9.0,9.0,93,0.00,,SKC,0.00,0.00,VWS V14.01,2013-06-28 08:00:00,
2013-06-28 04:01:00,70.8,68.7,29.65,West,277,2.0,5.0,93,0.00,,SKC,0.00,0.00,VWS V14.01,2013-06-28 08:01:00,
2013-06-28 04:02:00,71.0,68.6,29.65,NW,316,7.0,9.0,92,0.00,,SKC,0.00,0.00,VWS V14.01,2013-06-28 08:02:00,
2013-06-28 04:04:00,71.3,68.9,29.65,North,355,5.0,9.0,92,0.00,,SKC,0.00,0.00,VWS V14.01,2013-06-28 08:04:00,
2013-06-28 04:06:00,71.7,68.6,29.65,WNW,300,5.0,9.0,90,0.00,,SKC,0.00,0.00,VWS V14.01,2013-06-28 08:06:00,
2013-06-28 04:07:00,71.9,68.8,29.65,NW,321,4.0,9.0,90,0.00,,SKC,0.00,0.00,VWS V14.01,2013-06-28 08:07:00,
2013-06-28 04:08:00,72.1,69.0,29.65,NW,317,6.0,9.0,90,0.00,,SKC,0.00,0.00,VWS V14.01,2013-06-28 08:08:00,
2013-06-28 04:09:00,72.1,69.0,29.65,NW,325,6.0,9.0,90,0.00,,SKC,0.00,0.00,VWS V14.01,2013-06-28 08:09:00,
2013-06-28 04:11:00,72.5,68.8,29.65,NNW,348,7.0,9.0,88,0.00,,SKC,0.00,0.00,VWS V14.01,2013-06-28 08:11:00,
2013-06-28 04:12:00,72.5,68.8,29.65,NNW,336,5.0,9.0,88,0.00,,SKC,0.00,0.00,VWS V14.01,2013-06-28 08:12:00,
2013-06-28 04:13:00,72.7,68.9,29.65,NW,304,2.0,10.0,88,0.00,,SKC,0.00,0.00,VWS V14.01,2013-06-28 08:13:00,
2013-06-28 04:14:00,72.7,68.9,29.65,WNW,303,1.0,10.0,88,0.00,,SKC,0.00,0.00,VWS V14.01,2013-06-28 08:14:00,
2013-06-28 04:16:00,72.9,68.8,29.66,NW,312,2.0,10.0,87,0.00,,SKC,0.00,0.00,VWS V14.01,2013-06-28 08:16:00,
2013-06-28 04:17:00,72.9,68.8,29.66,NW,325,2.0,10.0,87,0.00,,SKC,0.00,0.00,VWS V14.01,2013-06-28 08:17:00,
2013-06-28 04:19:00,73.0,68.9,29.66,NNW,348,3.0,10.0,87,0.00,,SKC,0.00,0.00,VWS V14.01,2013-06-28 08:19:00,
2013-06-28 04:20:00,73.1,69.0,29.66,WNW,283,3.0,10.0,87,0.00,,SKC,0.00,0.00,VWS V14.01,2013-06-28 08:20:00,
2013-06-28 04:21:00,73.1,69.0,29.66,WSW,258,1.0,10.0,87,0.00,,SKC,0.00,0.00,VWS V14.01,2013-06-28 08:21:00,
2013-06-28 04:22:00,73.1,68.7,29.66,WNW,290,5.0,10.0,86,0.00,,SKC,0.00,0.00,VWS V14.01,2013-06-28 08:22:00,
2013-06-28 04:24:00,73.1,68.7,29.66,WNW,291,4.0,10.0,86,0.00,,SKC,0.00,0.00,VWS V14.01,2013-06-28 08:24:00,
2013-06-28 04:25:00,73.1,68.7,29.66,WNW,295,1.0,10.0,86,0.00,,SKC,0.00,0.00,VWS V14.01,2013-06-28 08:25:00,
2013-06-28 04:26:00,73.1,68.7,29.65,WNW,298,3.0,10.0,86,0.00,,SKC,0.00,0.00,VWS V14.01,2013-06-28 08:26:00,
2013-06-28 04:27:00,73.1,68.7,29.65,WNW,289,6.0,10.0,86,0.00,,SKC,0.00,0.00,VWS V14.01,2013-06-28 08:27:00,
2013-06-28 04:29:00,73.2,68.8,29.66,WNW,298,3.0,10.0,86,0.00,,SKC,0.00,0.00,VWS V14.01,2013-06-28 08:29:00,
2013-06-28 04:30:00,73.2,68.8,29.66,NW,311,2.0,10.0,86,0.00,,SKC,0.00,0.00,VWS V14.01,2013-06-28 08:30:00,
2013-06-28 04:31:00,73.3,68.9,29.65,NNW,340,4.0,5.0,86,0.00,,SKC,0.00,0.00,VWS V14.01,2013-06-28 08:31:00,
2013-06-28 04:34:00,73.3,68.9,29.66,NNW,333,1.0,5.0,86,0.00,,SKC,0.00,0.00,VWS V14.01,2013-06-28 08:34:00,
2013-06-28 04:35:00,73.3,68.9,29.66,NNW,337,3.0,5.0,86,0.00,,SKC,0.00,0.00,VWS V14.01,2013-06-28 08:35:00,
2013-06-28 04:36:00,73.3,68.9,29.65,NW,325,2.0,5.0,86,0.00,,SKC,0.00,0.00,VWS V14.01,2013-06-28 08:36:00,
2013-06-28 04:37:00,73.3,68.9,29.65,WNW,301,1.0,5.0,86,0.00,,SKC,0.00,0.00,VWS V14.01,2013-06-28 08:37:00,
2013-06-28 04:39:00,73.2,68.8,29.65,WNW,303,0.0,5.0,86,0.00,,SKC,0.00,0.00,VWS V14.01,2013-06-28 08:39:00,
2013-06-28 04:40:00,73.2,68.8,29.65,NW,325,3.0,6.0,86,0.00,,SKC,0.00,0.00,VWS V14.01,2013-06-28 08:40:00,
2013-06-28 04:42:00,73.2,68.8,29.65,NNW,327,5.0,7.0,86,0.00,,SKC,0.00,0.00,VWS V14.01,2013-06-28 08:42:00,
2013-06-28 04:43:00,73.3,68.9,29.65,WNW,287,1.0,7.0,86,0.00,,SKC,0.00,0.00,VWS V14.01,2013-06-28 08:43:00,
2013-06-28 04:44:00,73.3,68.9,29.65,NW,314,0.0,7.0,86,0.00,,SKC,0.00,0.00,VWS V14.01,2013-06-28 08:44:00,
2013-06-28 04:45:00,73.3,68.9,29.65,West,281,0.0,7.0,86,0.00,,SKC,0.00,0.00,VWS V14.01,2013-06-28 08:45:00,
2013-06-28 04:47:00,73.3,68.9,29.65,WSW,257,0.0,7.0,86,0.00,,SKC,0.00,0.00,VWS V14.01,2013-06-28 08:47:00,
2013-06-28 04:49:00,73.3,68.5,29.65,WNW,287,1.0,7.0,85,0.00,,SKC,0.00,0.00,VWS V14.01,2013-06-28 08:49:00,
2013-06-28 04:50:00,73.3,68.5,29.66,NNW,333,0.0,7.0,85,0.00,,SKC,0.00,0.00,VWS V14.01,2013-06-28 08:50:00,
2013-06-28 04:51:00,73.2,68.4,29.66,WNW,286,0.0,7.0,85,0.00,,SKC,0.00,0.00,VWS V14.01,2013-06-28 08:51:00,
2013-06-28 04:52:00,73.2,68.8,29.66,NW,304,2.0,7.0,86,0.00,,SKC,0.00,0.00,VWS V14.01,2013-06-28 08:52:00,
2013-06-28 04:54:00,73.2,68.8,29.66,NW,313,0.0,7.0,86,0.00,,SKC,0.00,0.00,VWS V14.01,2013-06-28 08:54:00,
2013-06-28 04:55:00,73.2,68.8,29.66,NW,309,0.0,7.0,86,0.00,,SKC,0.00,0.00,VWS V14.01,2013-06-28 08:55:00,
2013-06-28 04:56:00,73.1,68.7,29.66,WNW,288,4.0,7.0,86,0.00,,SKC,0.00,0.00,VWS V14.01,2013-06-28 08:56:00,
2013-06-28 04:57:00,73.2,68.8,29.66,WNW,302,5.0,7.0,86,0.00,,SKC,0.00,0.00,VWS V14.01,2013-06-28 08:57:00,
2013-06-28 05:00:00,73.3,68.5,29.66,West,277,0.0,11.0,85,0.00,,SKC,0.00,0.00,VWS V14.01,2013-06-28 09:00:00,
2013-06-28 05:01:00,73.3,68.5,29.66,WNW,298,3.0,11.0,85,0.00,,SKC,0.00,0.00,VWS V14.01,2013-06-28 09:01:00,
2013-06-28 05:02:00,73.3,68.5,29.66,WNW,302,0.0,2.0,85,0.00,,SKC,0.00,0.00,VWS V14.01,2013-06-28 09:02:00,
2013-06-28 05:05:00,73.3,68.5,29.66,WNW,298,4.0,7.0,85,0.00,,SKC,0.00,0.00,VWS V14.01,2013-06-28 09:05:00,
2013-06-28 05:06:00,73.4,68.6,29.66,NNW,329,0.0,7.0,85,0.00,,SKC,0.00,0.00,VWS V14.01,2013-06-28 09:06:00,
2013-06-28 05:07:00,73.3,68.5,29.66,SSE,150,0.0,7.0,85,0.00,,SKC,0.00,0.00,VWS V14.01,2013-06-28 09:07:00,
2013-06-28 05:10:00,73.3,68.5,29.66,SSE,158,0.0,7.0,85,0.00,,SKC,0.00,0.00,VWS V14.01,2013-06-28 09:10:00,
2013-06-28 05:11:00,73.3,68.5,29.66,SW,216,1.0,7.0,85,0.00,,SKC,0.00,0.00,VWS V14.01,2013-06-28 09:11:00,
2013-06-28 05:12:00,73.3,68.5,29.66,SW,215,0.0,7.0,85,0.00,,SKC,0.00,0.00,VWS V14.01,2013-06-28 09:12:00,
2013-06-28 05:15:00,73.1,68.3,29.66,NW,324,1.0,7.0,85,0.00,,SKC,0.00,0.00,VWS V14.01,2013-06-28 09:15:00,
2013-06-28 05:16:00,73.1,68.3,29.66,NNW,327,0.0,7.0,85,0.00,,SKC,0.00,0.00,VWS V14.01,2013-06-28 09:16:00,
2013-06-28 05:17:00,73.1,68.7,29.66,NNW,327,4.0,7.0,86,0.00,,SKC,0.00,0.00,VWS V14.01,2013-06-28 09:17:00,
2013-06-28 05:20:00,73.1,68.7,29.66,NW,318,0.0,7.0,86,0.00,,SKC,0.00,0.00,VWS V14.01,2013-06-28 09:20:00,
2013-06-28 05:21:00,73.1,68.7,29.66,NW,319,2.0,7.0,86,0.00,,SKC,0.00,0.00,VWS V14.01,2013-06-28 09:21:00,
2013-06-28 05:22:00,73.1,68.7,29.66,NW,319,0.0,7.0,86,0.00,,SKC,0.00,0.00,VWS V14.01,2013-06-28 09:22:00,
2013-06-28 05:23:00,73.1,68.7,29.66,NW,319,0.0,7.0,86,0.00,,SKC,0.00,0.00,VWS V14.01,2013-06-28 09:23:00,
2013-06-28 05:26:00,73.0,68.2,29.66,NW,319,1.0,7.0,85,0.00,,SKC,0.00,0.00,VWS V14.01,2013-06-28 09:26:00,
2013-06-28 05:27:00,73.0,68.6,29.66,NW,319,0.0,7.0,86,0.00,,SKC,0.00,0.00,VWS V14.01,2013-06-28 09:27:00,
2013-06-28 05:29:00,73.0,68.6,29.66,WNW,296,3.0,7.0,86,0.00,,SKC,0.00,0.00,VWS V14.01,2013-06-28 09:29:00,
2013-06-28 05:31:00,73.0,68.6,29.66,NW,324,1.0,7.0,86,0.00,,SKC,0.00,0.00,VWS V14.01,2013-06-28 09:31:00,
2013-06-28 05:32:00,73.0,68.6,29.66,WNW,294,0.0,3.0,86,0.00,,SKC,0.00,0.00,VWS V14.01,2013-06-28 09:32:00,
2013-06-28 05:34:00,73.0,68.6,29.66,West,275,3.0,4.0,86,0.00,,SKC,0.00,0.00,VWS V14.01,2013-06-28 09:34:00,
2013-06-28 05:36:00,73.0,68.6,29.66,WNW,299,3.0,6.0,86,0.00,,SKC,0.00,0.00,VWS V14.01,2013-06-28 09:36:00,
2013-06-28 05:37:00,73.0,68.6,29.66,West,278,5.0,6.0,86,0.00,,SKC,0.00,0.00,VWS V14.01,2013-06-28 09:37:00,
2013-06-28 05:38:00,73.0,68.2,29.66,WNW,300,3.0,6.0,85,0.00,,SKC,0.00,0.00,VWS V14.01,2013-06-28 09:38:00,
2013-06-28 05:39:00,73.0,68.2,29.66,NW,304,3.0,6.0,85,0.00,,SKC,0.00,0.00,VWS V14.01,2013-06-28 09:39:00,
2013-06-28 05:41:00,73.1,68.3,29.66,WNW,301,4.0,6.0,85,0.00,,SKC,0.00,0.00,VWS V14.01,2013-06-28 09:41:00,
2013-06-28 05:42:00,73.1,68.7,29.66,WNW,296,3.0,8.0,86,0.00,,SKC,0.00,0.00,VWS V14.01,2013-06-28 09:42:00,
2013-06-28 05:43:00,73.1,68.3,29.66,WNW,297,0.0,8.0,85,0.00,,SKC,0.00,0.00,VWS V14.01,2013-06-28 09:43:00,
2013-06-28 05:44:00,73.1,68.7,29.66,WNW,298,1.0,8.0,86,0.00,,SKC,0.00,0.00,VWS V14.01,2013-06-28 09:44:00,
2013-06-28 05:46:00,73.1,68.7,29.66,North,355,4.0,8.0,86,0.00,,SKC,0.00,0.00,VWS V14.01,2013-06-28 09:46:00,
2013-06-28 05:47:00,73.1,68.3,29.66,NW,307,1.0,8.0,85,0.00,,SKC,0.00,0.00,VWS V14.01,2013-06-28 09:47:00,
2013-06-28 05:48:00,73.1,68.3,29.66,NW,310,0.0,8.0,85,0.00,,SKC,0.00,0.00,VWS V14.01,2013-06-28 09:48:00,
2013-06-28 05:49:00,73.1,68.3,29.66,WNW,282,1.0,8.0,85,0.00,,SKC,0.00,0.00,VWS V14.01,2013-06-28 09:49:00,
2013-06-28 05:51:00,73.2,68.4,29.66,WNW,283,0.0,8.0,85,0.00,,SKC,0.00,0.00,VWS V14.01,2013-06-28 09:51:00,
2013-06-28 05:53:00,73.3,68.5,29.66,WNW,303,3.0,8.0,85,0.00,,SKC,0.00,0.00,VWS V14.01,2013-06-28 09:53:00,
2013-06-28 05:54:00,73.3,68.5,29.66,NW,309,0.0,8.0,85,0.00,,SKC,0.00,0.00,VWS V14.01,2013-06-28 09:54:00,
2013-06-28 05:56:00,73.3,68.5,29.66,NNW,333,3.0,10.0,85,0.00,,SKC,0.00,0.00,VWS V14.01,2013-06-28 09:56:00,
2013-06-28 05:58:00,73.4,68.6,29.66,WNW,299,3.0,10.0,85,0.00,,SKC,0.00,0.00,VWS V14.01,2013-06-28 09:58:00,
2013-06-28 05:59:00,73.4,68.6,29.66,NNW,338,3.0,10.0,85,0.00,,SKC,0.00,0.00,VWS V14.01,2013-06-28 09:59:00,
2013-06-28 06:02:00,73.5,68.4,29.65,NW,306,0.0,3.0,84,0.00,,SKC,0.00,0.00,VWS V14.01,2013-06-28 10:02:00,
2013-06-28 06:04:00,73.5,68.4,29.65,NW,304,0.0,3.0,84,0.00,,SKC,0.00,0.00,VWS V14.01,2013-06-28 10:04:00,
2013-06-28 06:07:00,73.6,68.5,29.65,NW,325,0.0,6.0,84,0.00,,SKC,0.00,0.00,VWS V14.01,2013-06-28 10:07:00,
2013-06-28 06:09:00,73.7,68.6,29.66,NW,321,2.0,6.0,84,0.00,,SKC,0.00,5.00,VWS V14.01,2013-06-28 10:09:00,
2013-06-28 06:10:00,73.7,68.6,29.65,North,355,1.0,6.0,84,0.00,,SKC,0.00,5.00,VWS V14.01,2013-06-28 10:10:00,
2013-06-28 06:12:00,73.7,68.6,29.65,ESE,102,1.0,6.0,84,0.00,,SKC,0.00,7.00,VWS V14.01,2013-06-28 10:12:00,
2013-06-28 06:14:00,73.8,68.7,29.65,West,261,1.0,6.0,84,0.00,,SKC,0.00,9.00,VWS V14.01,2013-06-28 10:14:00,
2013-06-28 06:15:00,73.7,68.6,29.65,NW,304,2.0,6.0,84,0.00,,SKC,0.00,9.00,VWS V14.01,2013-06-28 10:15:00,
2013-06-28 06:17:00,73.8,68.3,29.65,SW,223,3.0,7.0,83,0.00,,SKC,0.00,11.00,VWS V14.01,2013-06-28 10:17:00,
2013-06-28 06:19:00,73.9,68.4,29.65,WSW,257,0.0,7.0,83,0.00,,SKC,0.00,11.00,VWS V14.01,2013-06-28 10:19:00,
2013-06-28 06:20:00,73.9,68.4,29.65,WNW,283,5.0,7.0,83,0.00,,SKC,0.00,12.00,VWS V14.01,2013-06-28 10:20:00,
2013-06-28 06:22:00,73.9,68.4,29.65,WSW,249,0.0,7.0,83,0.00,,SKC,0.00,12.00,VWS V14.01,2013-06-28 10:22:00,
2013-06-28 06:24:00,73.9,68.4,29.65,NW,322,2.0,7.0,83,0.00,,SKC,0.00,11.00,VWS V14.01,2013-06-28 10:24:00,
2013-06-28 06:25:00,73.9,68.4,29.65,NW,322,0.0,7.0,83,0.00,,SKC,0.00,11.00,VWS V14.01,2013-06-28 10:25:00,
2013-06-28 06:26:00,73.9,68.4,29.65,SW,229,3.0,7.0,83,0.00,,SKC,0.00,11.00,VWS V14.01,2013-06-28 10:26:00,
2013-06-28 06:27:00,73.9,68.4,29.65,West,275,0.0,7.0,83,0.00,,SKC,0.00,11.00,VWS V14.01,2013-06-28 10:27:00,
2013-06-28 06:30:00,73.9,68.4,29.65,NNW,346,0.0,7.0,83,0.00,,SKC,0.00,11.00,VWS V14.01,2013-06-28 10:30:00,
2013-06-28 06:31:00,73.9,68.4,29.65,NNW,346,0.0,7.0,83,0.00,,SKC,0.00,12.00,VWS V14.01,2013-06-28 10:31:00,
2013-06-28 06:32:00,73.7,68.6,29.65,West,266,3.0,3.0,84,0.00,,SKC,0.00,12.00,VWS V14.01,2013-06-28 10:32:00,
2013-06-28 06:35:00,73.4,68.3,29.65,SE,146,1.0,3.0,84,0.00,,SKC,0.00,19.00,VWS V14.01,2013-06-28 10:35:00,
2013-06-28 06:36:00,73.2,68.1,29.65,SE,146,0.0,3.0,84,0.00,,SKC,0.00,21.00,VWS V14.01,2013-06-28 10:36:00,
2013-06-28 06:38:00,72.7,67.9,29.65,SE,146,0.0,3.0,85,0.00,,SKC,0.00,19.00,VWS V14.01,2013-06-28 10:38:00,
2013-06-28 06:40:00,72.2,68.1,29.65,SSE,147,0.0,3.0,87,0.00,,SKC,0.00,14.00,VWS V14.01,2013-06-28 10:40:00,
2013-06-28 06:41:00,72.1,68.0,29.65,SSE,147,1.0,3.0,87,0.00,,SKC,0.00,14.00,VWS V14.01,2013-06-28 10:41:00,
2013-06-28 06:43:00,71.9,67.8,29.65,SSE,147,1.0,3.0,87,0.00,,SKC,0.00,16.00,VWS V14.01,2013-06-28 10:43:00,
2013-06-28 06:45:00,71.7,68.0,29.65,SSE,147,0.0,3.0,88,0.00,,SKC,0.00,19.00,VWS V14.01,2013-06-28 10:45:00,
2013-06-28 06:46:00,71.6,67.9,29.65,SSE,147,2.0,3.0,88,0.00,,SKC,0.00,21.00,VWS V14.01,2013-06-28 10:46:00,
2013-06-28 06:48:00,71.5,67.8,29.65,SSE,147,0.0,3.0,88,0.00,,SKC,0.00,23.00,VWS V14.01,2013-06-28 10:48:00,
2013-06-28 06:50:00,71.5,67.8,29.65,SSE,147,0.0,3.0,88,0.00,,SKC,0.00,25.00,VWS V14.01,2013-06-28 10:50:00,
2013-06-28 06:51:00,71.5,67.8,29.65,SSE,147,0.0,3.0,88,0.00,,SKC,0.00,19.00,VWS V14.01,2013-06-28 10:51:00,
2013-06-28 06:52:00,71.5,67.8,29.65,SSE,147,0.0,3.0,88,0.00,,SKC,0.00,19.00,VWS V14.01,2013-06-28 10:52:00,
2013-06-28 06:53:00,71.4,67.7,29.65,SSE,147,0.0,3.0,88,0.00,,SKC,0.00,21.00,VWS V14.01,2013-06-28 10:53:00,
2013-06-28 06:56:00,71.4,68.0,29.65,SSE,147,0.0,3.0,89,0.00,,SKC,0.00,19.00,VWS V14.01,2013-06-28 10:56:00,
2013-06-28 06:57:00,71.4,68.0,29.65,SSE,147,0.0,3.0,89,0.00,,SKC,0.00,21.00,VWS V14.01,2013-06-28 10:57:00,
2013-06-28 06:58:00,71.5,68.1,29.65,SSE,147,0.0,3.0,89,0.00,,SKC,0.00,26.00,VWS V14.01,2013-06-28 10:58:00,
2013-06-28 07:01:00,71.4,68.0,29.65,SSE,147,0.0,3.0,89,0.00,,SKC,0.00,32.00,VWS V14.01,2013-06-28 11:01:00,
2013-06-28 07:02:00,71.4,68.0,29.65,SSE,147,0.0,0.0,89,0.00,,SKC,0.00,35.00,VWS V14.01,2013-06-28 11:02:00,
2013-06-28 07:03:00,71.4,68.0,29.65,SSE,147,0.0,0.0,89,0.00,,SKC,0.00,39.00,VWS V14.01,2013-06-28 11:03:00,
2013-06-28 07:06:00,71.4,68.0,29.65,SSE,147,0.0,0.0,89,0.00,,SKC,0.00,49.00,VWS V14.01,2013-06-28 11:06:00,
2013-06-28 07:07:00,71.4,68.0,29.65,SSE,147,0.0,0.0,89,0.00,,SKC,0.00,54.00,VWS V14.01,2013-06-28 11:07:00,
2013-06-28 07:08:00,71.5,68.1,29.65,SSE,147,0.0,0.0,89,0.00,,SKC,0.00,62.00,VWS V14.01,2013-06-28 11:08:00,
2013-06-28 07:12:00,71.6,68.2,29.65,SSE,147,0.0,1.0,89,0.00,,SKC,0.00,70.00,VWS V14.01,2013-06-28 11:12:00,
2013-06-28 07:13:00,71.6,68.5,29.65,SSE,147,0.0,1.0,90,0.00,,SKC,0.00,74.00,VWS V14.01,2013-06-28 11:13:00,
2013-06-28 07:17:00,71.8,68.7,29.65,SSE,147,0.0,1.0,90,0.00,,SKC,0.00,84.00,VWS V14.01,2013-06-28 11:17:00,
2013-06-28 07:18:00,71.9,68.8,29.65,SSE,147,0.0,1.0,90,0.00,,SKC,0.00,88.00,VWS V14.01,2013-06-28 11:18:00,
2013-06-28 07:19:00,71.9,68.8,29.65,SSE,147,0.0,1.0,90,0.00,,SKC,0.00,79.00,VWS V14.01,2013-06-28 11:19:00,
2013-06-28 07:22:00,72.1,68.7,29.65,SSE,147,0.0,1.0,89,0.00,,SKC,0.00,88.00,VWS V14.01,2013-06-28 11:22:00,
2013-06-28 07:23:00,72.1,68.7,29.65,SSE,147,0.0,1.0,89,0.00,,SKC,0.00,88.00,VWS V14.01,2013-06-28 11:23:00,
2013-06-28 07:24:00,72.1,68.7,29.65,SSE,147,0.0,1.0,89,0.00,,SKC,0.00,100.00,VWS V14.01,2013-06-28 11:24:00,
2013-06-28 07:27:00,72.4,69.0,29.65,SSE,147,0.0,1.0,89,0.00,,SKC,0.00,81.00,VWS V14.01,2013-06-28 11:27:00,
2013-06-28 07:28:00,72.4,69.0,29.65,SSE,147,1.0,1.0,89,0.00,,SKC,0.00,81.00,VWS V14.01,2013-06-28 11:28:00,
2013-06-28 07:29:00,72.5,68.8,29.65,SSE,147,0.0,1.0,88,0.00,,SKC,0.00,81.00,VWS V14.01,2013-06-28 11:29:00,
2013-06-28 07:33:00,72.7,69.3,29.65,SSE,147,0.0,0.0,89,0.00,,SKC,0.00,25.00,VWS V14.01,2013-06-28 11:33:00,
2013-06-28 07:34:00,72.7,69.3,29.65,SSE,147,0.0,0.0,89,0.00,,SKC,0.00,25.00,VWS V14.01,2013-06-28 11:34:00,
2013-06-28 07:38:00,72.9,69.5,29.65,SSE,147,0.0,0.0,89,0.00,,SKC,0.00,26.00,VWS V14.01,2013-06-28 11:38:00,
2013-06-28 07:39:00,72.9,69.5,29.65,SSE,147,0.0,0.0,89,0.00,,SKC,0.00,28.00,VWS V14.01,2013-06-28 11:39:00,
2013-06-28 07:43:00,72.9,69.5,29.65,SSE,147,0.0,0.0,89,0.00,,SKC,0.00,58.00,VWS V14.01,2013-06-28 11:43:00,
2013-06-28 07:44:00,72.8,69.4,29.65,SSE,147,0.0,0.0,89,0.00,,SKC,0.00,116.00,VWS V14.01,2013-06-28 11:44:00,
2013-06-28 07:48:00,72.8,69.0,29.65,SSE,147,0.0,0.0,88,0.00,,SKC,0.00,102.00,VWS V14.01,2013-06-28 11:48:00,
2013-06-28 07:49:00,72.8,69.0,29.65,SSE,147,0.0,0.0,88,0.00,,SKC,0.00,111.00,VWS V14.01,2013-06-28 11:49:00,
2013-06-28 07:53:00,72.7,69.3,29.65,SSE,147,0.0,0.0,89,0.00,,SKC,0.00,93.00,VWS V14.01,2013-06-28 11:53:00,
2013-06-28 07:54:00,72.6,69.2,29.65,SSE,147,0.0,0.0,89,0.00,,SKC,0.00,100.00,VWS V14.01,2013-06-28 11:54:00,
2013-06-28 07:55:00,72.6,69.2,29.65,SSE,147,0.0,0.0,89,0.00,,SKC,0.00,97.00,VWS V14.01,2013-06-28 11:55:00,
2013-06-28 07:58:00,72.6,69.5,29.66,SSE,147,0.0,0.0,90,0.00,,SKC,0.00,114.00,VWS V14.01,2013-06-28 11:58:00,
2013-06-28 07:59:00,72.6,69.5,29.66,SSE,147,0.0,0.0,90,0.00,,SKC,0.00,113.00,VWS V14.01,2013-06-28 11:59:00,
2013-06-28 08:00:00,72.6,69.2,29.65,SSE,147,0.0,0.0,89,0.00,,SKC,0.00,113.00,VWS V14.01,2013-06-28 12:00:00,
2013-06-28 08:03:00,72.7,69.3,29.65,SSE,147,0.0,0.0,89,0.00,,SKC,0.00,118.00,VWS V14.01,2013-06-28 12:03:00,
2013-06-28 08:04:00,72.7,69.3,29.65,SSE,147,0.0,0.0,89,0.00,,SKC,0.00,118.00,VWS V14.01,2013-06-28 12:04:00,
2013-06-28 08:05:00,72.7,69.3,29.65,SSE,147,0.0,0.0,89,0.00,,SKC,0.00,107.00,VWS V14.01,2013-06-28 12:05:00,
2013-06-28 08:09:00,73.0,69.9,29.65,SSE,147,0.0,0.0,90,0.00,,SKC,0.00,97.00,VWS V14.01,2013-06-28 12:09:00,
2013-06-28 08:10:00,73.0,69.9,29.65,SSE,147,0.0,0.0,90,0.00,,SKC,0.00,114.00,VWS V14.01,2013-06-28 12:10:00,
2013-06-28 08:14:00,73.2,69.8,29.66,SSE,147,0.0,0.0,89,0.00,,SKC,0.00,114.00,VWS V14.01,2013-06-28 12:14:00,
2013-06-28 08:15:00,73.2,69.8,29.65,SSE,147,0.0,0.0,89,0.00,,SKC,0.00,121.00,VWS V14.01,2013-06-28 12:15:00,
2013-06-28 08:19:00,73.5,70.4,29.65,SSE,147,0.0,0.0,90,0.00,,SKC,0.00,135.00,VWS V14.01,2013-06-28 12:19:00,
2013-06-28 08:20:00,73.6,70.5,29.65,SSE,147,0.0,0.0,90,0.00,,SKC,0.00,130.00,VWS V14.01,2013-06-28 12:20:00,
2013-06-28 08:24:00,73.9,70.5,29.65,SSE,147,0.0,0.0,89,0.00,,SKC,0.00,162.00,VWS V14.01,2013-06-28 12:24:00,
2013-06-28 08:25:00,74.0,70.6,29.65,SSE,147,0.0,0.0,89,0.00,,SKC,0.00,174.00,VWS V14.01,2013-06-28 12:25:00,
2013-06-28 08:26:00,74.0,70.6,29.65,SSE,147,0.0,0.0,89,0.00,,SKC,0.00,176.00,VWS V14.01,2013-06-28 12:26:00,
2013-06-28 08:29:00,74.2,70.8,29.65,SSE,147,0.0,0.0,89,0.00,,SKC,0.00,199.00,VWS V14.01,2013-06-28 12:29:00,
2013-06-28 08:30:00,74.3,70.5,29.65,SSE,147,0.0,0.0,88,0.00,,SKC,0.00,192.00,VWS V14.01,2013-06-28 12:30:00,
2013-06-28 08:31:00,74.4,70.3,29.65,SSE,147,0.0,0.0,87,0.00,,SKC,0.00,186.00,VWS V14.01,2013-06-28 12:31:00,
2013-06-28 08:34:00,74.5,70.0,29.65,SSE,147,2.0,2.0,86,0.00,,SKC,0.00,192.00,VWS V14.01,2013-06-28 12:34:00,
2013-06-28 08:36:00,74.7,70.6,29.65,SSE,147,3.0,3.0,87,0.00,,SKC,0.00,362.00,VWS V14.01,2013-06-28 12:36:00,
2013-06-28 08:39:00,74.7,69.9,29.65,SSE,147,4.0,4.0,85,0.00,,SKC,0.00,362.00,VWS V14.01,2013-06-28 12:39:00,
2013-06-28 08:40:00,74.7,69.9,29.65,SSE,147,2.0,4.0,85,0.00,,SKC,0.00,183.00,VWS V14.01,2013-06-28 12:40:00,
2013-06-28 08:41:00,74.7,70.2,29.65,SSE,147,0.0,4.0,86,0.00,,SKC,0.00,163.00,VWS V14.01,2013-06-28 12:41:00,
2013-06-28 08:42:00,74.8,70.3,29.65,SSE,147,0.0,4.0,86,0.00,,SKC,0.00,163.00,VWS V14.01,2013-06-28 12:42:00,
2013-06-28 08:44:00,74.9,70.8,29.65,SSE,147,1.0,4.0,87,0.00,,SKC,0.00,345.00,VWS V14.01,2013-06-28 12:44:00,
2013-06-28 08:45:00,75.0,70.9,29.65,SSE,147,0.0,4.0,87,0.00,,SKC,0.00,348.00,VWS V14.01,2013-06-28 12:45:00,
2013-06-28 08:46:00,75.0,70.9,29.65,SSE,147,2.0,4.0,87,0.00,,SKC,0.00,345.00,VWS V14.01,2013-06-28 12:46:00,
2013-06-28 08:47:00,75.1,70.6,29.64,SSE,147,0.0,4.0,86,0.00,,SKC,0.00,353.00,VWS V14.01,2013-06-28 12:47:00,
2013-06-28 08:49:00,75.3,70.8,29.64,SSE,147,1.0,4.0,86,0.00,,SKC,0.00,359.00,VWS V14.01,2013-06-28 12:49:00,
2013-06-28 08:50:00,75.4,70.9,29.64,SSE,147,0.0,4.0,86,0.00,,SKC,0.00,366.00,VWS V14.01,2013-06-28 12:50:00,
2013-06-28 08:51:00,75.6,71.5,29.64,SSE,147,0.0,4.0,87,0.00,,SKC,0.00,367.00,VWS V14.01,2013-06-28 12:51:00,
2013-06-28 08:52:00,75.7,71.6,29.64,SSE,147,0.0,4.0,87,0.00,,SKC,0.00,369.00,VWS V14.01,2013-06-28 12:52:00,
2013-06-28 08:55:00,76.0,71.9,29.64,SSE,147,1.0,4.0,87,0.00,,SKC,0.00,378.00,VWS V14.01,2013-06-28 12:55:00,
2013-06-28 08:56:00,76.1,71.9,29.64,SSW,212,2.0,5.0,87,0.00,,SKC,0.00,380.00,VWS V14.01,2013-06-28 12:56:00,
2013-06-28 08:58:00,76.3,72.2,29.64,SSW,198,3.0,5.0,87,0.00,,SKC,0.00,383.00,VWS V14.01,2013-06-28 12:58:00,
2013-06-28 09:00:00,76.5,72.0,29.64,SSW,199,2.0,5.0,86,0.00,,SKC,0.00,394.00,VWS V14.01,2013-06-28 13:00:00,
2013-06-28 09:01:00,76.6,72.1,29.64,SSW,199,2.0,5.0,86,0.00,,SKC,0.00,399.00,VWS V14.01,2013-06-28 13:01:00,
2013-06-28 09:02:00,76.8,71.9,29.64,SSW,199,0.0,2.0,85,0.00,,SKC,0.00,408.00,VWS V14.01,2013-06-28 13:02:00,
2013-06-28 09:03:00,76.9,72.4,29.64,SSW,199,2.0,3.0,86,0.00,,SKC,0.00,410.00,VWS V14.01,2013-06-28 13:03:00,
2013-06-28 09:05:00,77.1,71.9,29.64,SW,215,2.0,5.0,84,0.00,,SKC,0.00,425.00,VWS V14.01,2013-06-28 13:05:00,
2013-06-28 09:06:00,77.2,71.6,29.64,SSW,193,3.0,5.0,83,0.00,,SKC,0.00,422.00,VWS V14.01,2013-06-28 13:06:00,
2013-06-28 09:07:00,77.3,71.7,29.64,SW,219,5.0,5.0,83,0.00,,SKC,0.00,429.00,VWS V14.01,2013-06-28 13:07:00,
2013-06-28 09:08:00,77.3,71.4,29.64,SW,214,8.0,9.0,82,0.00,,SKC,0.00,427.00,VWS V14.01,2013-06-28 13:08:00,
2013-06-28 09:10:00,77.3,71.7,29.64,SW,217,5.0,9.0,83,0.00,,SKC,0.00,450.00,VWS V14.01,2013-06-28 13:10:00,
2013-06-28 09:11:00,77.3,71.7,29.64,SSW,212,3.0,9.0,83,0.00,,SKC,0.00,450.00,VWS V14.01,2013-06-28 13:11:00,
2013-06-28 09:12:00,77.5,71.9,29.64,SSW,211,4.0,9.0,83,0.00,,SKC,0.00,461.00,VWS V14.01,2013-06-28 13:12:00,
2013-06-28 09:13:00,77.5,71.9,29.64,SW,214,1.0,9.0,83,0.00,,SKC,0.00,461.00,VWS V14.01,2013-06-28 13:13:00,
2013-06-28 09:16:00,77.6,71.7,29.64,SSW,209,5.0,9.0,82,0.00,,SKC,0.00,452.00,VWS V14.01,2013-06-28 13:16:00,
2013-06-28 09:17:00,77.7,71.4,29.64,SW,220,2.0,9.0,81,0.00,,SKC,0.00,475.00,VWS V14.01,2013-06-28 13:17:00,
2013-06-28 09:18:00,77.9,72.3,29.64,SW,220,0.0,9.0,83,0.00,,SKC,0.00,482.00,VWS V14.01,2013-06-28 13:18:00,
2013-06-28 09:21:00,78.1,71.4,29.64,SW,219,6.0,9.0,80,0.00,,SKC,0.00,504.00,VWS V14.01,2013-06-28 13:21:00,
2013-06-28 09:22:00,78.2,71.2,29.64,SW,216,1.0,9.0,79,0.00,,SKC,0.00,524.00,VWS V14.01,2013-06-28 13:22:00,
2013-06-28 09:24:00,78.5,72.6,29.64,SW,221,2.0,9.0,82,0.00,,SKC,0.00,545.00,VWS V14.01,2013-06-28 13:24:00,
2013-06-28 09:26:00,78.7,72.0,29.64,SW,215,2.0,9.0,80,0.00,,SKC,0.00,564.00,VWS V14.01,2013-06-28 13:26:00,
2013-06-28 09:27:00,78.7,72.4,29.64,SW,215,2.0,9.0,81,0.00,,SKC,0.00,564.00,VWS V14.01,2013-06-28 13:27:00,
2013-06-28 09:29:00,79.0,72.3,29.64,SW,214,0.0,9.0,80,0.00,,SKC,0.00,555.00,VWS V14.01,2013-06-28 13:29:00,
2013-06-28 09:31:00,79.2,72.9,29.64,SW,215,5.0,9.0,81,0.00,,SKC,0.00,555.00,VWS V14.01,2013-06-28 13:31:00,
2013-06-28 09:32:00,79.2,72.5,29.65,SW,226,5.0,8.0,80,0.00,,SKC,0.00,171.00,VWS V14.01,2013-06-28 13:32:00,
2013-06-28 09:34:00,79.0,71.6,29.65,SW,215,4.0,9.0,78,0.00,,SKC,0.00,225.00,VWS V14.01,2013-06-28 13:34:00,
2013-06-28 09:36:00,79.0,72.7,29.65,West,281,2.0,9.0,81,0.00,,SKC,0.00,622.00,VWS V14.01,2013-06-28 13:36:00,
2013-06-28 09:37:00,79.1,71.7,29.64,WNW,298,3.0,9.0,78,0.00,,SKC,0.00,622.00,VWS V14.01,2013-06-28 13:37:00,
2013-06-28 09:38:00,79.1,72.0,29.65,NW,324,0.0,9.0,79,0.00,,SKC,0.00,622.00,VWS V14.01,2013-06-28 13:38:00,
2013-06-28 09:39:00,79.4,71.6,29.64,SW,229,0.0,9.0,77,0.00,,SKC,0.00,299.00,VWS V14.01,2013-06-28 13:39:00,
2013-06-28 09:41:00,79.5,71.7,29.65,WSW,257,3.0,9.0,77,0.00,,SKC,0.00,223.00,VWS V14.01,2013-06-28 13:41:00,
2013-06-28 09:42:00,79.6,71.8,29.64,SW,227,1.0,9.0,77,0.00,,SKC,0.00,315.00,VWS V14.01,2013-06-28 13:42:00,
2013-06-28 09:43:00,79.6,71.8,29.64,SW,228,1.0,9.0,77,0.00,,SKC,0.00,315.00,VWS V14.01,2013-06-28 13:43:00,
2013-06-28 09:44:00,79.6,71.8,29.64,SW,215,2.0,9.0,77,0.00,,SKC,0.00,601.00,VWS V14.01,2013-06-28 13:44:00,
2013-06-28 09:46:00,79.8,72.3,29.64,SSW,202,1.0,9.0,78,0.00,,SKC,0.00,570.00,VWS V14.01,2013-06-28 13:46:00,
2013-06-28 09:47:00,80.4,73.3,29.64,SSE,160,0.0,9.0,79,0.00,,SKC,0.00,550.00,VWS V14.01,2013-06-28 13:47:00,
2013-06-28 09:48:00,80.5,72.6,29.64,ESE,115,1.0,9.0,77,0.00,,SKC,0.00,550.00,VWS V14.01,2013-06-28 13:48:00,
2013-06-28 09:50:00,81.2,72.1,29.64,WSW,242,3.0,9.0,74,0.00,,SKC,0.00,534.00,VWS V14.01,2013-06-28 13:50:00,
2013-06-28 09:51:00,81.3,71.8,29.64,WNW,292,0.0,9.0,73,0.00,,SKC,0.00,538.00,VWS V14.01,2013-06-28 13:51:00,
2013-06-28 09:53:00,81.2,72.1,29.64,SSW,208,3.0,9.0,74,0.00,,SKC,0.00,550.00,VWS V14.01,2013-06-28 13:53:00,
2013-06-28 09:55:00,80.8,72.1,29.64,NNW,347,0.0,9.0,75,0.00,,SKC,0.00,555.00,VWS V14.01,2013-06-28 13:55:00,
2013-06-28 09:56:00,80.9,72.2,29.64,NNW,334,2.0,9.0,75,0.00,,SKC,0.00,554.00,VWS V14.01,2013-06-28 13:56:00,
2013-06-28 09:58:00,80.9,71.8,29.64,NW,306,0.0,9.0,74,0.00,,SKC,0.00,555.00,VWS V14.01,2013-06-28 13:58:00,
2013-06-28 10:01:00,80.9,72.6,29.64,SSW,209,4.0,9.0,76,0.00,,SKC,0.00,568.00,VWS V14.01,2013-06-28 14:01:00,
2013-06-28 10:03:00,81.1,72.4,29.64,SW,235,1.0,1.0,75,0.00,,SKC,0.00,568.00,VWS V14.01,2013-06-28 14:03:00,
2013-06-28 10:04:00,81.3,73.0,29.64,West,260,1.0,2.0,76,0.00,,SKC,0.00,577.00,VWS V14.01,2013-06-28 14:04:00,
2013-06-28 10:06:00,81.6,73.3,29.64,SW,227,1.0,3.0,76,0.00,,SKC,0.00,599.00,VWS V14.01,2013-06-28 14:06:00,
2013-06-28 10:07:00,81.6,72.9,29.64,SW,215,9.0,9.0,75,0.00,,SKC,0.00,599.00,VWS V14.01,2013-06-28 14:07:00,
2013-06-28 10:08:00,81.2,71.3,29.64,SW,215,5.0,11.0,72,0.00,,SKC,0.00,612.00,VWS V14.01,2013-06-28 14:08:00,
2013-06-28 10:09:00,81.1,70.8,29.64,SSW,201,8.0,11.0,71,0.00,,SKC,0.00,619.00,VWS V14.01,2013-06-28 14:09:00,
2013-06-28 10:11:00,80.9,71.8,29.64,SSW,199,4.0,11.0,74,0.00,,SKC,0.00,621.00,VWS V14.01,2013-06-28 14:11:00,
2013-06-28 10:12:00,81.0,72.7,29.64,WSW,237,0.0,11.0,76,0.00,,SKC,0.00,624.00,VWS V14.01,2013-06-28 14:12:00,
2013-06-28 10:14:00,81.0,71.5,29.64,SSW,209,4.0,11.0,73,0.00,,SKC,0.00,622.00,VWS V14.01,2013-06-28 14:14:00,
2013-06-28 10:16:00,80.9,71.4,29.64,SSW,211,3.0,11.0,73,0.00,,SKC,0.00,619.00,VWS V14.01,2013-06-28 14:16:00,
2013-06-28 10:17:00,80.9,71.8,29.63,SSW,211,2.0,11.0,74,0.00,,SKC,0.00,643.00,VWS V14.01,2013-06-28 14:17:00,
2013-06-28 10:19:00,81.1,71.6,29.63,SW,217,0.0,11.0,73,0.00,,SKC,0.00,677.00,VWS V14.01,2013-06-28 14:19:00,
2013-06-28 10:21:00,81.3,71.4,29.63,SW,228,6.0,11.0,72,0.00,,SKC,0.00,717.00,VWS V14.01,2013-06-28 14:21:00,
2013-06-28 10:22:00,81.3,71.0,29.63,SW,222,6.0,11.0,71,0.00,,SKC,0.00,717.00,VWS V14.01,2013-06-28 14:22:00,
2013-06-28 10:24:00,81.3,71.4,29.63,SW,215,2.0,11.0,72,0.00,,SKC,0.00,770.00,VWS V14.01,2013-06-28 14:24:00,
2013-06-28 10:25:00,81.4,71.5,29.63,SW,214,2.0,11.0,72,0.00,,SKC,0.00,269.00,VWS V14.01,2013-06-28 14:25:00,
2013-06-28 10:26:00,81.6,71.7,29.63,SSW,207,3.0,11.0,72,0.00,,SKC,0.00,269.00,VWS V14.01,2013-06-28 14:26:00,
2013-06-28 10:27:00,81.7,72.2,29.63,SW,219,4.0,11.0,73,0.00,,SKC,0.00,269.00,VWS V14.01,2013-06-28 14:27:00,
2013-06-28 10:29:00,81.7,71.8,29.63,SW,227,0.0,11.0,72,0.00,,SKC,0.00,789.00,VWS V14.01,2013-06-28 14:29:00,
2013-06-28 10:30:00,81.6,70.9,29.63,SSW,213,3.0,11.0,70,0.00,,SKC,0.00,789.00,VWS V14.01,2013-06-28 14:30:00,
2013-06-28 10:31:00,81.5,71.6,29.63,SSW,209,1.0,4.0,72,0.00,,SKC,0.00,789.00,VWS V14.01,2013-06-28 14:31:00,
2013-06-28 10:33:00,81.4,71.1,29.63,SSW,209,0.0,4.0,71,0.00,,SKC,0.00,789.00,VWS V14.01,2013-06-28 14:33:00,
2013-06-28 10:34:00,81.4,70.7,29.63,SSW,197,1.0,5.0,70,0.00,,SKC,0.00,789.00,VWS V14.01,2013-06-28 14:34:00,
2013-06-28 10:35:00,81.5,72.0,29.63,SSW,197,1.0,5.0,73,0.00,,SKC,0.00,789.00,VWS V14.01,2013-06-28 14:35:00,
2013-06-28 10:37:00,81.6,71.7,29.63,WNW,286,3.0,5.0,72,0.00,,SKC,0.00,237.00,VWS V14.01,2013-06-28 14:37:00,
2013-06-28 10:38:00,81.6,72.1,29.63,SW,221,1.0,5.0,73,0.00,,SKC,0.00,237.00,VWS V14.01,2013-06-28 14:38:00,
2013-06-28 10:40:00,81.8,71.5,29.63,SW,229,3.0,7.0,71,0.00,,SKC,0.00,237.00,VWS V14.01,2013-06-28 14:40:00,
2013-06-28 10:41:00,81.8,71.1,29.63,SW,215,10.0,12.0,70,0.00,,SKC,0.00,842.00,VWS V14.01,2013-06-28 14:41:00,
2013-06-28 10:42:00,81.9,71.6,29.63,SW,227,3.0,12.0,71,0.00,,SKC,0.00,842.00,VWS V14.01,2013-06-28 14:42:00,
2013-06-28 10:43:00,81.8,71.5,29.63,SW,215,2.0,12.0,71,0.00,,SKC,0.00,221.00,VWS V14.01,2013-06-28 14:43:00,
2013-06-28 10:45:00,81.8,71.1,29.63,SSW,202,6.0,12.0,70,0.00,,SKC,0.00,798.00,VWS V14.01,2013-06-28 14:45:00,
2013-06-28 10:46:00,81.9,71.6,29.63,SSW,203,6.0,12.0,71,0.00,,SKC,0.00,812.00,VWS V14.01,2013-06-28 14:46:00,
2013-06-28 10:47:00,82.0,71.3,29.63,SW,223,0.0,12.0,70,0.00,,SKC,0.00,812.00,VWS V14.01,2013-06-28 14:47:00,
2013-06-28 10:48:00,82.1,72.6,29.63,SSW,213,5.0,12.0,73,0.00,,SKC,0.00,761.00,VWS V14.01,2013-06-28 14:48:00,
2013-06-28 10:50:00,82.3,71.5,29.63,West,261,1.0,12.0,70,0.00,,SKC,0.00,860.00,VWS V14.01,2013-06-28 14:50:00,
2013-06-28 10:51:00,82.3,71.1,29.63,SW,234,1.0,12.0,69,0.00,,SKC,0.00,800.00,VWS V14.01,2013-06-28 14:51:00,
2013-06-28 10:52:00,82.4,71.6,29.63,SSW,213,2.0,12.0,70,0.00,,SKC,0.00,800.00,VWS V14.01,2013-06-28 14:52:00,
2013-06-28 10:53:00,82.4,71.6,29.63,SW,214,1.0,12.0,70,0.00,,SKC,0.00,800.00,VWS V14.01,2013-06-28 14:53:00,
2013-06-28 10:55:00,82.3,70.7,29.63,SW,219,2.0,12.0,68,0.00,,SKC,0.00,886.00,VWS V14.01,2013-06-28 14:55:00,
2013-06-28 10:56:00,82.3,72.0,29.63,SW,234,3.0,12.0,71,0.00,,SKC,0.00,281.00,VWS V14.01,2013-06-28 14:56:00,
2013-06-28 10:58:00,82.5,71.3,29.63,South,182,1.0,12.0,69,0.00,,SKC,0.00,854.00,VWS V14.01,2013-06-28 14:58:00,
2013-06-28 11:00:00,82.7,71.1,29.63,SW,217,1.0,12.0,68,0.00,,SKC,0.00,872.00,VWS V14.01,2013-06-28 15:00:00,
2013-06-28 11:01:00,83.0,72.6,29.63,SW,217,0.0,1.0,71,0.00,,SKC,0.00,909.00,VWS V14.01,2013-06-28 15:01:00,
2013-06-28 11:02:00,83.2,72.8,29.63,WSW,254,0.0,1.0,71,0.00,,SKC,0.00,923.00,VWS V14.01,2013-06-28 15:02:00,
2013-06-28 11:03:00,83.6,71.9,29.63,West,261,1.0,2.0,68,0.00,,SKC,0.00,870.00,VWS V14.01,2013-06-28 15:03:00,
2013-06-28 11:05:00,83.8,72.6,29.63,WSW,246,2.0,6.0,69,0.00,,SKC,0.00,877.00,VWS V14.01,2013-06-28 15:05:00,
2013-06-28 11:07:00,83.7,70.7,29.63,SW,223,8.0,10.0,65,0.00,,SKC,0.00,877.00,VWS V14.01,2013-06-28 15:07:00,
2013-06-28 11:08:00,83.4,71.3,29.63,NW,326,5.0,10.0,67,0.00,,SKC,0.00,877.00,VWS V14.01,2013-06-28 15:08:00,
2013-06-28 11:10:00,82.9,70.8,29.63,SSW,213,2.0,10.0,67,0.00,,SKC,0.00,229.00,VWS V14.01,2013-06-28 15:10:00,
2013-06-28 11:12:00,82.9,70.8,29.63,SW,233,0.0,10.0,67,0.00,,SKC,0.00,877.00,VWS V14.01,2013-06-28 15:12:00,
2013-06-28 11:13:00,83.0,71.8,29.63,SSW,201,1.0,10.0,69,0.00,,SKC,0.00,870.00,VWS V14.01,2013-06-28 15:13:00,
2013-06-28 11:14:00,83.1,71.9,29.63,SSW,211,7.0,10.0,69,0.00,,SKC,0.00,870.00,VWS V14.01,2013-06-28 15:14:00,
2013-06-28 11:16:00,83.0,70.9,29.63,SW,225,2.0,10.0,67,0.00,,SKC,0.00,870.00,VWS V14.01,2013-06-28 15:16:00,
2013-06-28 11:17:00,83.2,71.6,29.63,WSW,248,1.0,10.0,68,0.00,,SKC,0.00,853.00,VWS V14.01,2013-06-28 15:17:00,
2013-06-28 11:18:00,83.6,71.5,29.63,West,271,3.0,10.0,67,0.00,,SKC,0.00,837.00,VWS V14.01,2013-06-28 15:18:00,
2013-06-28 11:19:00,83.6,71.1,29.62,SSW,207,0.0,10.0,66,0.00,,SKC,0.00,837.00,VWS V14.01,2013-06-28 15:19:00,
2013-06-28 11:20:00,83.7,72.5,29.62,SSW,209,1.0,10.0,69,0.00,,SKC,0.00,795.00,VWS V14.01,2013-06-28 15:20:00,
2013-06-28 11:22:00,83.8,71.7,29.62,SSW,194,5.0,10.0,67,0.00,,SKC,0.00,780.00,VWS V14.01,2013-06-28 15:22:00,
2013-06-28 11:24:00,83.7,71.1,29.62,SSW,211,3.0,10.0,66,0.00,,SKC,0.00,786.00,VWS V14.01,2013-06-28 15:24:00,
2013-06-28 11:25:00,83.5,71.4,29.62,SW,219,1.0,10.0,67,0.00,,SKC,0.00,793.00,VWS V14.01,2013-06-28 15:25:00,
2013-06-28 11:26:00,83.5,70.9,29.62,SSW,208,4.0,10.0,66,0.00,,SKC,0.00,791.00,VWS V14.01,2013-06-28 15:26:00,
2013-06-28 11:27:00,83.5,71.4,29.62,NW,326,3.0,10.0,67,0.00,,SKC,0.00,802.00,VWS V14.01,2013-06-28 15:27:00,
2013-06-28 11:28:00,83.5,71.4,29.62,South,173,2.0,10.0,67,0.00,,SKC,0.00,802.00,VWS V14.01,2013-06-28 15:28:00,
2013-06-28 11:29:00,83.6,71.1,29.62,SW,217,1.0,10.0,66,0.00,,SKC,0.00,802.00,VWS V14.01,2013-06-28 15:29:00,
2013-06-28 11:30:00,83.6,71.1,29.62,WSW,257,2.0,10.0,66,0.00,,SKC,0.00,780.00,VWS V14.01,2013-06-28 15:30:00,
2013-06-28 11:31:00,83.7,71.1,29.62,West,267,3.0,10.0,66,0.00,,SKC,0.00,805.00,VWS V14.01,2013-06-28 15:31:00,
2013-06-28 11:32:00,83.8,71.2,29.62,West,277,0.0,6.0,66,0.00,,SKC,0.00,844.00,VWS V14.01,2013-06-28 15:32:00,
2013-06-28 11:33:00,83.9,70.4,29.62,West,272,1.0,6.0,64,0.00,,SKC,0.00,884.00,VWS V14.01,2013-06-28 15:33:00,
2013-06-28 11:35:00,83.9,70.9,29.62,West,279,2.0,6.0,65,0.00,,SKC,0.00,881.00,VWS V14.01,2013-06-28 15:35:00,
2013-06-28 11:36:00,84.1,71.5,29.62,SSW,201,1.0,6.0,66,0.00,,SKC,0.00,893.00,VWS V14.01,2013-06-28 15:36:00,
2013-06-28 11:38:00,84.2,71.2,29.62,NNW,329,1.0,6.0,65,0.00,,SKC,0.00,905.00,VWS V14.01,2013-06-28 15:38:00,
2013-06-28 11:40:00,84.8,71.3,29.62,NW,314,1.0,6.0,64,0.00,,SKC,0.00,232.00,VWS V14.01,2013-06-28 15:40:00,
2013-06-28 11:41:00,84.9,71.8,29.62,NW,305,6.0,10.0,65,0.00,,SKC,0.00,232.00,VWS V14.01,2013-06-28 15:41:00,
2013-06-28 11:43:00,85.0,71.0,29.62,NW,309,3.0,10.0,63,0.00,,SKC,0.00,232.00,VWS V14.01,2013-06-28 15:43:00,
2013-06-28 11:44:00,85.0,71.0,29.62,NW,319,0.0,10.0,63,0.00,,SKC,0.00,893.00,VWS V14.01,2013-06-28 15:44:00,
2013-06-28 11:45:00,85.3,72.7,29.62,NW,315,0.0,10.0,66,0.00,,SKC,0.00,926.00,VWS V14.01,2013-06-28 15:45:00,
2013-06-28 11:47:00,85.4,71.4,29.62,NW,321,0.0,10.0,63,0.00,,SKC,0.00,320.00,VWS V14.01,2013-06-28 15:47:00,
2013-06-28 11:48:00,85.4,71.8,29.62,NNW,348,5.0,10.0,64,0.00,,SKC,0.00,306.00,VWS V14.01,2013-06-28 15:48:00,
2013-06-28 11:49:00,85.3,71.8,29.62,North,350,2.0,10.0,64,0.00,,SKC,0.00,306.00,VWS V14.01,2013-06-28 15:49:00,
2013-06-28 11:50:00,85.3,73.1,29.62,NNW,347,3.0,10.0,67,0.00,,SKC,0.00,967.00,VWS V14.01,2013-06-28 15:50:00,
2013-06-28 11:52:00,85.3,72.7,29.61,SE,126,0.0,10.0,66,0.00,,SKC,0.00,315.00,VWS V14.01,2013-06-28 15:52:00,
2013-06-28 11:53:00,85.3,71.8,29.61,NW,318,5.0,10.0,64,0.00,,SKC,0.00,315.00,VWS V14.01,2013-06-28 15:53:00,
2013-06-28 11:54:00,85.3,71.8,29.61,NW,316,0.0,10.0,64,0.00,,SKC,0.00,306.00,VWS V14.01,2013-06-28 15:54:00,
2013-06-28 11:56:00,85.2,72.1,29.61,WNW,290,0.0,10.0,65,0.00,,SKC,0.00,250.00,VWS V14.01,2013-06-28 15:56:00,
2013-06-28 11:57:00,85.0,71.5,29.61,WNW,289,1.0,10.0,64,0.00,,SKC,0.00,199.00,VWS V14.01,2013-06-28 15:57:00,
2013-06-28 11:58:00,84.8,71.3,29.61,West,269,3.0,10.0,64,0.00,,SKC,0.00,163.00,VWS V14.01,2013-06-28 15:58:00,
2013-06-28 11:59:00,84.7,71.2,29.61,WNW,282,3.0,10.0,64,0.00,,SKC,0.00,146.00,VWS V14.01,2013-06-28 15:59:00,
2013-06-28 12:01:00,84.1,70.2,29.61,NNW,337,2.0,10.0,63,0.00,,SKC,0.00,114.00,VWS V14.01,2013-06-28 16:01:00,
2013-06-28 12:03:00,83.6,70.6,29.62,West,262,0.0,5.0,65,0.00,,SKC,0.00,98.00,VWS V14.01,2013-06-28 16:03:00,
2013-06-28 12:04:00,83.4,70.4,29.62,West,264,1.0,5.0,65,0.00,,SKC,0.00,120.00,VWS V14.01,2013-06-28 16:04:00,
2013-06-28 12:06:00,83.3,70.8,29.62,North,360,5.0,5.0,66,0.00,,SKC,0.00,158.00,VWS V14.01,2013-06-28 16:06:00,
2013-06-28 12:07:00,83.2,69.8,29.62,WNW,290,2.0,8.0,64,0.00,,SKC,0.00,139.00,VWS V14.01,2013-06-28 16:07:00,
2013-06-28 12:08:00,83.1,69.7,29.62,WNW,292,3.0,8.0,64,0.00,,SKC,0.00,146.00,VWS V14.01,2013-06-28 16:08:00,
2013-06-28 12:09:00,83.0,69.6,29.62,NW,305,0.0,8.0,64,0.00,,SKC,0.00,146.00,VWS V14.01,2013-06-28 16:09:00,
2013-06-28 12:11:00,83.0,70.5,29.62,North,360,1.0,8.0,66,0.00,,SKC,0.00,944.00,VWS V14.01,2013-06-28 16:11:00,
2013-06-28 12:12:00,83.2,71.6,29.61,North,355,1.0,8.0,68,0.00,,SKC,0.00,930.00,VWS V14.01,2013-06-28 16:12:00,
2013-06-28 12:13:00,83.7,71.6,29.62,NW,323,0.0,9.0,67,0.00,,SKC,0.00,970.00,VWS V14.01,2013-06-28 16:13:00,
2013-06-28 12:15:00,84.3,72.6,29.62,NNW,340,1.0,9.0,68,0.00,,SKC,0.00,969.00,VWS V14.01,2013-06-28 16:15:00,
2013-06-28 12:16:00,84.9,70.4,29.62,WNW,296,0.0,9.0,62,0.00,,SKC,0.00,984.00,VWS V14.01,2013-06-28 16:16:00,
2013-06-28 12:17:00,85.3,71.8,29.61,NW,306,0.0,9.0,64,0.00,,SKC,0.00,969.00,VWS V14.01,2013-06-28 16:17:00,
2013-06-28 12:18:00,85.8,72.2,29.61,NW,309,3.0,9.0,64,0.00,,SKC,0.00,954.00,VWS V14.01,2013-06-28 16:18:00,
2013-06-28 12:19:00,85.9,72.3,29.61,NW,309,0.0,9.0,64,0.00,,SKC,0.00,954.00,VWS V14.01,2013-06-28 16:19:00,
2013-06-28 12:20:00,86.1,72.0,29.61,NW,319,1.0,9.0,63,0.00,,SKC,0.00,954.00,VWS V14.01,2013-06-28 16:20:00,
2013-06-28 12:21:00,86.6,73.0,29.61,NW,314,1.0,9.0,64,0.00,,SKC,0.00,933.00,VWS V14.01,2013-06-28 16:21:00,
2013-06-28 12:22:00,86.8,72.2,29.62,WNW,294,2.0,9.0,62,0.00,,SKC,0.00,937.00,VWS V14.01,2013-06-28 16:22:00,
2013-06-28 12:24:00,87.2,73.6,29.61,NNW,336,2.0,9.0,64,0.00,,SKC,0.00,923.00,VWS V14.01,2013-06-28 16:24:00,
2013-06-28 12:25:00,87.3,71.2,29.61,West,267,4.0,11.0,59,0.00,,SKC,0.00,842.00,VWS V14.01,2013-06-28 16:25:00,
2013-06-28 12:26:00,87.1,71.5,29.61,SSW,205,4.0,11.0,60,0.00,,SKC,0.00,886.00,VWS V14.01,2013-06-28 16:26:00,
2013-06-28 12:27:00,87.0,71.9,29.61,SW,221,7.0,11.0,61,0.00,,SKC,0.00,911.00,VWS V14.01,2013-06-28 16:27:00,
2013-06-28 12:29:00,86.3,70.3,29.61,SW,215,5.0,11.0,59,0.00,,SKC,0.00,918.00,VWS V14.01,2013-06-28 16:29:00,
2013-06-28 12:30:00,85.8,70.8,29.61,SW,229,8.0,11.0,61,0.00,,SKC,0.00,914.00,VWS V14.01,2013-06-28 16:30:00,
2013-06-28 12:32:00,85.5,70.0,29.61,WSW,246,1.0,6.0,60,0.00,,SKC,0.00,919.00,VWS V14.01,2013-06-28 16:32:00,
2013-06-28 12:33:00,85.8,71.8,29.61,North,351,2.0,6.0,63,0.00,,SKC,0.00,947.00,VWS V14.01,2013-06-28 16:33:00,
2013-06-28 12:34:00,85.8,71.8,29.61,WSW,254,3.0,6.0,63,0.00,,SKC,0.00,939.00,VWS V14.01,2013-06-28 16:34:00,
2013-06-28 12:35:00,86.1,70.6,29.61,West,268,7.0,8.0,60,0.00,,SKC,0.00,972.00,VWS V14.01,2013-06-28 16:35:00,
2013-06-28 12:37:00,86.1,69.6,29.61,SSW,205,2.0,8.0,58,0.00,,SKC,0.00,997.00,VWS V14.01,2013-06-28 16:37:00,
2013-06-28 12:39:00,86.0,70.5,29.61,SW,225,4.0,9.0,60,0.00,,SKC,0.00,1065.00,VWS V14.01,2013-06-28 16:39:00,
2013-06-28 12:40:00,85.7,69.7,29.61,WSW,242,1.0,9.0,59,0.00,,SKC,0.00,1016.00,VWS V14.01,2013-06-28 16:40:00,
2013-06-28 12:42:00,85.7,70.7,29.61,NW,321,4.0,9.0,61,0.00,,SKC,0.00,1016.00,VWS V14.01,2013-06-28 16:42:00,
2013-06-28 12:44:00,85.9,71.8,29.61,West,273,2.0,9.0,63,0.00,,SKC,0.00,1016.00,VWS V14.01,2013-06-28 16:44:00,
2013-06-28 12:45:00,86.0,72.4,29.61,WNW,290,2.0,9.0,64,0.00,,SKC,0.00,1016.00,VWS V14.01,2013-06-28 16:45:00,
2013-06-28 12:46:00,86.1,71.1,29.61,SSW,199,7.0,9.0,61,0.00,,SKC,0.00,914.00,VWS V14.01,2013-06-28 16:46:00,
2013-06-28 12:47:00,86.2,72.6,29.61,NW,310,0.0,9.0,64,0.00,,SKC,0.00,944.00,VWS V14.01,2013-06-28 16:47:00,
2013-06-28 12:50:00,86.3,70.3,29.61,SSW,211,8.0,12.0,59,0.00,,SKC,0.00,932.00,VWS V14.01,2013-06-28 16:50:00,
2013-06-28 12:51:00,86.1,70.1,29.61,SSW,204,6.0,12.0,59,0.00,,SKC,0.00,960.00,VWS V14.01,2013-06-28 16:51:00,
2013-06-28 12:52:00,86.1,70.1,29.60,SSW,202,2.0,12.0,59,0.00,,SKC,0.00,923.00,VWS V14.01,2013-06-28 16:52:00,
2013-06-28 12:55:00,86.0,70.0,29.60,SSW,207,2.0,12.0,59,0.00,,SKC,0.00,933.00,VWS V14.01,2013-06-28 16:55:00,
2013-06-28 12:56:00,86.0,70.5,29.60,SW,217,6.0,12.0,60,0.00,,SKC,0.00,956.00,VWS V14.01,2013-06-28 16:56:00,
2013-06-28 12:57:00,85.9,69.9,29.60,SW,219,8.0,12.0,59,0.00,,SKC,0.00,977.00,VWS V14.01,2013-06-28 16:57:00,
2013-06-28 13:00:00,85.8,70.3,29.60,WSW,254,3.0,12.0,60,0.00,,SKC,0.00,984.00,VWS V14.01,2013-06-28 17:00:00,
2013-06-28 13:01:00,85.8,69.8,29.60,WSW,258,9.0,9.0,59,0.00,,SKC,0.00,984.00,VWS V14.01,2013-06-28 17:01:00,
2013-06-28 13:02:00,85.8,69.8,29.60,SW,215,4.0,9.0,59,0.00,,SKC,0.00,1000.00,VWS V14.01,2013-06-28 17:02:00,
2013-06-28 13:05:00,85.7,69.2,29.60,SSE,164,2.0,12.0,58,0.00,,SKC,0.00,255.00,VWS V14.01,2013-06-28 17:05:00,
2013-06-28 13:06:00,85.7,69.2,29.60,SSW,203,4.0,12.0,58,0.00,,SKC,0.00,255.00,VWS V14.01,2013-06-28 17:06:00,
2013-06-28 13:07:00,85.6,70.1,29.60,NW,311,3.0,12.0,60,0.00,,SKC,0.00,255.00,VWS V14.01,2013-06-28 17:07:00,
2013-06-28 13:08:00,85.9,70.4,29.60,WSW,252,2.0,12.0,60,0.00,,SKC,0.00,953.00,VWS V14.01,2013-06-28 17:08:00,
2013-06-28 13:10:00,86.1,69.6,29.60,SW,216,5.0,12.0,58,0.00,,SKC,0.00,935.00,VWS V14.01,2013-06-28 17:10:00,
2013-06-28 13:11:00,86.1,70.1,29.60,SSW,209,7.0,12.0,59,0.00,,SKC,0.00,935.00,VWS V14.01,2013-06-28 17:11:00,
2013-06-28 13:12:00,86.1,69.6,29.60,SSW,207,2.0,12.0,58,0.00,,SKC,0.00,954.00,VWS V14.01,2013-06-28 17:12:00,
2013-06-28 13:13:00,86.2,71.2,29.60,SSW,204,0.0,12.0,61,0.00,,SKC,0.00,993.00,VWS V14.01,2013-06-28 17:13:00,
2013-06-28 13:15:00,86.7,71.2,29.59,North,5,0.0,12.0,60,0.00,,SKC,0.00,1016.00,VWS V14.01,2013-06-28 17:15:00,
2013-06-28 13:16:00,86.9,71.3,29.59,NNW,332,1.0,12.0,60,0.00,,SKC,0.00,1016.00,VWS V14.01,2013-06-28 17:16:00,
2013-06-28 13:18:00,87.6,71.0,29.59,WSW,245,3.0,12.0,58,0.00,,SKC,0.00,1053.00,VWS V14.01,2013-06-28 17:18:00,
2013-06-28 13:20:00,86.9,69.3,29.59,SW,234,5.0,12.0,56,0.00,,SKC,0.00,290.00,VWS V14.01,2013-06-28 17:20:00,
2013-06-28 13:21:00,86.6,69.6,29.59,SW,224,4.0,12.0,57,0.00,,SKC,0.00,1116.00,VWS V14.01,2013-06-28 17:21:00,
2013-06-28 13:22:00,86.5,69.5,29.59,SW,223,3.0,12.0,57,0.00,,SKC,0.00,1116.00,VWS V14.01,2013-06-28 17:22:00,
2013-06-28 13:23:00,86.5,71.0,29.59,SW,220,5.0,12.0,60,0.00,,SKC,0.00,1116.00,VWS V14.01,2013-06-28 17:23:00,
2013-06-28 13:24:00,86.4,70.4,29.59,SSW,212,1.0,12.0,59,0.00,,SKC,0.00,1116.00,VWS V14.01,2013-06-28 17:24:00,
2013-06-28 13:25:00,86.3,70.3,29.59,South,185,5.0,12.0,59,0.00,,SKC,0.00,338.00,VWS V14.01,2013-06-28 17:25:00,
2013-06-28 13:27:00,86.1,69.1,29.59,SW,214,9.0,12.0,57,0.00,,SKC,0.00,265.00,VWS V14.01,2013-06-28 17:27:00,
2013-06-28 13:28:00,85.7,68.7,29.59,SSW,209,9.0,12.0,57,0.00,,SKC,0.00,243.00,VWS V14.01,2013-06-28 17:28:00,
2013-06-28 13:29:00,85.5,68.5,29.59,WSW,237,2.0,12.0,57,0.00,,SKC,0.00,258.00,VWS V14.01,2013-06-28 17:29:00,
2013-06-28 13:31:00,85.0,68.6,29.59,SSW,208,2.0,12.0,58,0.00,,SKC,0.00,237.00,VWS V14.01,2013-06-28 17:31:00,
2013-06-28 13:32:00,84.9,68.5,29.59,SSW,210,0.0,8.0,58,0.00,,SKC,0.00,278.00,VWS V14.01,2013-06-28 17:32:00,
2013-06-28 13:33:00,84.9,68.5,29.59,SSW,209,9.0,13.0,58,0.00,,SKC,0.00,278.00,VWS V14.01,2013-06-28 17:33:00,
2013-06-28 13:34:00,84.9,68.5,29.59,SW,236,5.0,13.0,58,0.00,,SKC,0.00,1011.00,VWS V14.01,2013-06-28 17:34:00,
2013-06-28 13:36:00,85.2,69.3,29.59,South,178,2.0,13.0,59,0.00,,SKC,0.00,1011.00,VWS V14.01,2013-06-28 17:36:00,
2013-06-28 13:37:00,85.4,69.4,29.60,WNW,288,3.0,13.0,59,0.00,,SKC,0.00,1034.00,VWS V14.01,2013-06-28 17:37:00,
2013-06-28 13:39:00,86.2,71.7,29.59,NNE,12,1.0,13.0,62,0.00,,SKC,0.00,1042.00,VWS V14.01,2013-06-28 17:39:00,
2013-06-28 13:42:00,86.8,70.3,29.59,WSW,243,5.0,13.0,58,0.00,,SKC,0.00,1144.00,VWS V14.01,2013-06-28 17:42:00,
2013-06-28 13:43:00,86.9,70.9,29.59,South,171,1.0,13.0,59,0.00,,SKC,0.00,1176.00,VWS V14.01,2013-06-28 17:43:00,
2013-06-28 13:44:00,87.0,71.4,29.59,SSW,207,9.0,13.0,60,0.00,,SKC,0.00,1076.00,VWS V14.01,2013-06-28 17:44:00,
2013-06-28 13:47:00,86.8,70.8,29.59,SSW,202,0.0,13.0,59,0.00,,SKC,0.00,1104.00,VWS V14.01,2013-06-28 17:47:00,
2013-06-28 13:48:00,86.8,70.8,29.59,South,170,3.0,13.0,59,0.00,,SKC,0.00,1090.00,VWS V14.01,2013-06-28 17:48:00,
2013-06-28 13:49:00,87.0,71.9,29.59,NNW,337,0.0,13.0,61,0.00,,SKC,0.00,1090.00,VWS V14.01,2013-06-28 17:49:00,
2013-06-28 13:50:00,87.4,71.8,29.59,SSW,195,0.0,13.0,60,0.00,,SKC,0.00,745.00,VWS V14.01,2013-06-28 17:50:00,
2013-06-28 13:52:00,87.5,71.4,29.58,SSW,198,6.0,13.0,59,0.00,,SKC,0.00,745.00,VWS V14.01,2013-06-28 17:52:00,
2013-06-28 13:53:00,87.5,71.4,29.58,SSW,192,3.0,13.0,59,0.00,,SKC,0.00,745.00,VWS V14.01,2013-06-28 17:53:00,
2013-06-28 13:54:00,87.2,70.1,29.58,SSW,207,7.0,13.0,57,0.00,,SKC,0.00,745.00,VWS V14.01,2013-06-28 17:54:00,
2013-06-28 13:58:00,86.3,69.8,29.58,SSW,199,3.0,13.0,58,0.00,,SKC,0.00,1127.00,VWS V14.01,2013-06-28 17:58:00,
2013-06-28 13:59:00,86.0,70.0,29.58,SW,220,8.0,13.0,59,0.00,,SKC,0.00,290.00,VWS V14.01,2013-06-28 17:59:00,
2013-06-28 14:00:00,85.8,70.3,29.58,SW,231,5.0,13.0,60,0.00,,SKC,0.00,290.00,VWS V14.01,2013-06-28 18:00:00,
2013-06-28 14:03:00,85.7,70.2,29.58,SE,131,2.0,7.0,60,0.00,,SKC,0.00,1090.00,VWS V14.01,2013-06-28 18:03:00,
2013-06-28 14:04:00,85.6,70.1,29.58,SSW,196,9.0,15.0,60,0.00,,SKC,0.00,306.00,VWS V14.01,2013-06-28 18:04:00,
2013-06-28 14:05:00,85.5,70.0,29.58,South,174,6.0,15.0,60,0.00,,SKC,0.00,306.00,VWS V14.01,2013-06-28 18:05:00,
2013-06-28 14:08:00,85.2,71.2,29.58,SSE,157,4.0,15.0,63,0.00,,SKC,0.00,1023.00,VWS V14.01,2013-06-28 18:08:00,
2013-06-28 14:09:00,85.1,71.1,29.58,SSW,205,14.0,15.0,63,0.00,,SKC,0.00,1074.00,VWS V14.01,2013-06-28 18:09:00,
2013-06-28 14:10:00,85.0,70.5,29.58,SW,217,6.0,15.0,62,0.00,,SKC,0.00,1097.00,VWS V14.01,2013-06-28 18:10:00,
2013-06-28 14:13:00,84.5,70.5,29.58,SW,222,9.0,16.0,63,0.00,,SKC,0.00,295.00,VWS V14.01,2013-06-28 18:13:00,
2013-06-28 14:15:00,84.0,70.1,29.58,SSW,211,8.0,16.0,63,0.00,,SKC,0.00,1092.00,VWS V14.01,2013-06-28 18:15:00,
2013-06-28 14:18:00,84.3,70.8,29.57,SW,221,10.0,16.0,64,0.00,,SKC,0.00,977.00,VWS V14.01,2013-06-28 18:18:00,
2013-06-28 14:20:00,84.6,69.7,29.57,SSW,213,8.0,16.0,61,0.00,,SKC,0.00,981.00,VWS V14.01,2013-06-28 18:20:00,
2013-06-28 14:21:00,84.7,69.8,29.57,SSW,208,6.0,16.0,61,0.00,,SKC,0.00,969.00,VWS V14.01,2013-06-28 18:21:00,
2013-06-28 14:23:00,84.9,70.0,29.57,SW,214,7.0,16.0,61,0.00,,SKC,0.00,951.00,VWS V14.01,2013-06-28 18:23:00,
2013-06-28 14:24:00,85.0,70.5,29.57,SSE,165,6.0,16.0,62,0.00,,SKC,0.00,951.00,VWS V14.01,2013-06-28 18:24:00,
2013-06-28 14:25:00,85.1,70.2,29.57,WSW,253,8.0,16.0,61,0.00,,SKC,0.00,970.00,VWS V14.01,2013-06-28 18:25:00,
2013-06-28 14:26:00,85.2,71.2,29.57,SW,215,7.0,16.0,63,0.00,,SKC,0.00,981.00,VWS V14.01,2013-06-28 18:26:00,
2013-06-28 14:28:00,85.2,70.2,29.57,SSW,208,3.0,16.0,61,0.00,,SKC,0.00,1014.00,VWS V14.01,2013-06-28 18:28:00,
2013-06-28 14:29:00,85.3,71.8,29.57,SSW,212,7.0,16.0,64,0.00,,SKC,0.00,1014.00,VWS V14.01,2013-06-28 18:29:00,
2013-06-28 14:30:00,85.2,70.2,29.57,SW,219,8.0,16.0,61,0.00,,SKC,0.00,1014.00,VWS V14.01,2013-06-28 18:30:00,
2013-06-28 14:32:00,85.0,70.1,29.57,SW,223,3.0,10.0,61,0.00,,SKC,0.00,216.00,VWS V14.01,2013-06-28 18:32:00,
2013-06-28 14:33:00,84.7,70.2,29.57,SSW,199,6.0,13.0,62,0.00,,SKC,0.00,216.00,VWS V14.01,2013-06-28 18:33:00,
2013-06-28 14:34:00,84.6,69.7,29.56,SSW,194,5.0,13.0,61,0.00,,SKC,0.00,216.00,VWS V14.01,2013-06-28 18:34:00,
2013-06-28 14:36:00,84.7,69.8,29.57,SW,219,9.0,13.0,61,0.00,,SKC,0.00,216.00,VWS V14.01,2013-06-28 18:36:00,
2013-06-28 14:37:00,84.7,70.2,29.57,SW,215,2.0,13.0,62,0.00,,SKC,0.00,1044.00,VWS V14.01,2013-06-28 18:37:00,
2013-06-28 14:39:00,85.1,70.6,29.57,SSW,202,6.0,13.0,62,0.00,,SKC,0.00,988.00,VWS V14.01,2013-06-28 18:39:00,
2013-06-28 14:40:00,85.2,70.7,29.57,SW,218,8.0,13.0,62,0.00,,SKC,0.00,951.00,VWS V14.01,2013-06-28 18:40:00,
2013-06-28 14:41:00,85.4,71.8,29.56,WSW,251,2.0,13.0,64,0.00,,SKC,0.00,951.00,VWS V14.01,2013-06-28 18:41:00,
2013-06-28 14:43:00,85.6,71.1,29.56,SSW,199,10.0,13.0,62,0.00,,SKC,0.00,174.00,VWS V14.01,2013-06-28 18:43:00,
2013-06-28 14:44:00,85.4,70.4,29.56,SW,230,0.0,13.0,61,0.00,,SKC,0.00,174.00,VWS V14.01,2013-06-28 18:44:00,
2013-06-28 14:45:00,85.4,70.4,29.56,SW,230,1.0,13.0,61,0.00,,SKC,0.00,174.00,VWS V14.01,2013-06-28 18:45:00,
2013-06-28 14:46:00,85.3,70.3,29.56,SSE,159,1.0,13.0,61,0.00,,SKC,0.00,895.00,VWS V14.01,2013-06-28 18:46:00,
2013-06-28 14:48:00,85.6,71.1,29.56,SSW,203,2.0,13.0,62,0.00,,SKC,0.00,909.00,VWS V14.01,2013-06-28 18:48:00,
2013-06-28 14:50:00,85.9,70.9,29.56,SW,236,0.0,13.0,61,0.00,,SKC,0.00,909.00,VWS V14.01,2013-06-28 18:50:00,
2013-06-28 14:51:00,85.9,71.4,29.56,SSW,202,0.0,13.0,62,0.00,,SKC,0.00,942.00,VWS V14.01,2013-06-28 18:51:00,
2013-06-28 14:53:00,86.3,73.6,29.56,SSE,159,3.0,13.0,66,0.00,,SKC,0.00,925.00,VWS V14.01,2013-06-28 18:53:00,
2013-06-28 14:55:00,86.7,72.1,29.56,SW,231,2.0,13.0,62,0.00,,SKC,0.00,935.00,VWS V14.01,2013-06-28 18:55:00,
2013-06-28 14:57:00,86.6,71.1,29.56,SW,224,2.0,13.0,60,0.00,,SKC,0.00,935.00,VWS V14.01,2013-06-28 18:57:00,
2013-06-28 14:59:00,86.7,70.7,29.56,SSW,209,4.0,13.0,59,0.00,,SKC,0.00,153.00,VWS V14.01,2013-06-28 18:59:00,
2013-06-28 15:00:00,86.6,72.5,29.56,SSW,212,1.0,13.0,63,0.00,,SKC,0.00,183.00,VWS V14.01,2013-06-28 19:00:00,
2013-06-28 15:01:00,86.5,71.9,29.56,SSW,212,1.0,13.0,62,0.00,,SKC,0.00,214.00,VWS V14.01,2013-06-28 19:01:00,
2013-06-28 15:02:00,86.3,71.3,29.56,SSW,203,4.0,5.0,61,0.00,,SKC,0.00,218.00,VWS V14.01,2013-06-28 19:02:00,
2013-06-28 15:04:00,86.1,71.6,29.56,SW,227,2.0,5.0,62,0.00,,SKC,0.00,916.00,VWS V14.01,2013-06-28 19:04:00,
2013-06-28 15:05:00,86.3,73.2,29.56,WSW,241,2.0,5.0,65,0.00,,SKC,0.00,911.00,VWS V14.01,2013-06-28 19:05:00,
2013-06-28 15:06:00,86.4,72.8,29.56,WSW,252,5.0,5.0,64,0.00,,SKC,0.00,911.00,VWS V14.01,2013-06-28 19:06:00,
2013-06-28 15:07:00,86.4,70.9,29.56,WSW,246,3.0,5.0,60,0.00,,SKC,0.00,911.00,VWS V14.01,2013-06-28 19:07:00,
2013-06-28 15:09:00,86.5,71.0,29.56,SW,234,2.0,5.0,60,0.00,,SKC,0.00,911.00,VWS V14.01,2013-06-28 19:09:00,
2013-06-28 15:10:00,86.5,70.0,29.56,West,274,2.0,9.0,58,0.00,,SKC,0.00,911.00,VWS V14.01,2013-06-28 19:10:00,
2013-06-28 15:11:00,86.5,70.0,29.56,West,271,0.0,9.0,58,0.00,,SKC,0.00,267.00,VWS V14.01,2013-06-28 19:11:00,
2013-06-28 15:13:00,86.6,67.4,29.55,SSE,163,3.0,11.0,53,0.00,,SKC,0.00,919.00,VWS V14.01,2013-06-28 19:13:00,
2013-06-28 15:14:00,86.8,69.2,29.55,SW,217,3.0,11.0,56,0.00,,SKC,0.00,919.00,VWS V14.01,2013-06-28 19:14:00,
2013-06-28 15:16:00,87.1,69.5,29.55,North,360,1.0,11.0,56,0.00,,SKC,0.00,230.00,VWS V14.01,2013-06-28 19:16:00,
2013-06-28 15:19:00,87.4,68.7,29.55,SW,220,10.0,14.0,54,0.00,,SKC,0.00,949.00,VWS V14.01,2013-06-28 19:19:00,
2013-06-28 15:20:00,87.4,68.2,29.56,SW,222,9.0,14.0,53,0.00,,SKC,0.00,932.00,VWS V14.01,2013-06-28 19:20:00,
2013-06-28 15:21:00,87.4,67.1,29.55,SSW,211,7.0,14.0,51,0.00,,SKC,0.00,916.00,VWS V14.01,2013-06-28 19:21:00,
2013-06-28 15:24:00,87.3,65.8,29.55,SSW,209,10.0,14.0,49,0.00,,SKC,0.00,891.00,VWS V14.01,2013-06-28 19:24:00,
2013-06-28 15:25:00,87.3,67.0,29.55,SW,230,1.0,14.0,51,0.00,,SKC,0.00,895.00,VWS V14.01,2013-06-28 19:25:00,
2013-06-28 15:26:00,87.3,67.0,29.55,WSW,241,1.0,14.0,51,0.00,,SKC,0.00,907.00,VWS V14.01,2013-06-28 19:26:00,
2013-06-28 15:29:00,87.2,66.3,29.55,SSW,205,5.0,18.0,50,0.00,,SKC,0.00,909.00,VWS V14.01,2013-06-28 19:29:00,
2013-06-28 15:30:00,87.2,65.7,29.55,SW,218,3.0,18.0,49,0.00,,SKC,0.00,898.00,VWS V14.01,2013-06-28 19:30:00,
2013-06-28 15:31:00,87.2,65.7,29.55,SW,236,6.0,18.0,49,0.00,,SKC,0.00,904.00,VWS V14.01,2013-06-28 19:31:00,
2013-06-28 15:32:00,87.3,66.4,29.55,SW,217,2.0,6.0,50,0.00,,SKC,0.00,904.00,VWS V14.01,2013-06-28 19:32:00,
2013-06-28 15:34:00,86.9,66.0,29.55,SSW,200,10.0,14.0,50,0.00,,SKC,0.00,274.00,VWS V14.01,2013-06-28 19:34:00,
2013-06-28 15:36:00,86.8,65.4,29.55,WSW,244,2.0,15.0,49,0.00,,SKC,0.00,926.00,VWS V14.01,2013-06-28 19:36:00,
2013-06-28 15:37:00,86.9,66.0,29.55,WSW,244,3.0,15.0,50,0.00,,SKC,0.00,921.00,VWS V14.01,2013-06-28 19:37:00,
2013-06-28 15:40:00,87.3,65.8,29.55,WSW,242,0.0,15.0,49,0.00,,SKC,0.00,921.00,VWS V14.01,2013-06-28 19:40:00,
2013-06-28 15:41:00,87.3,66.4,29.55,NW,309,3.0,15.0,50,0.00,,SKC,0.00,204.00,VWS V14.01,2013-06-28 19:41:00,
2013-06-28 15:42:00,87.3,65.8,29.55,SSW,196,1.0,15.0,49,0.00,,SKC,0.00,204.00,VWS V14.01,2013-06-28 19:42:00,
2013-06-28 15:45:00,87.5,66.0,29.55,NNW,333,1.0,15.0,49,0.00,,SKC,0.00,220.00,VWS V14.01,2013-06-28 19:45:00,
2013-06-28 15:46:00,87.5,69.4,29.55,SSW,205,3.0,15.0,55,0.00,,SKC,0.00,220.00,VWS V14.01,2013-06-28 19:46:00,
2013-06-28 15:47:00,87.5,66.6,29.54,SSW,199,2.0,15.0,50,0.00,,SKC,0.00,960.00,VWS V14.01,2013-06-28 19:47:00,
2013-06-28 15:48:00,87.6,69.4,29.55,SSW,200,0.0,15.0,55,0.00,,SKC,0.00,970.00,VWS V14.01,2013-06-28 19:48:00,
2013-06-28 15:50:00,87.8,66.3,29.55,SW,219,4.0,15.0,49,0.00,,SKC,0.00,237.00,VWS V14.01,2013-06-28 19:50:00,
2013-06-28 15:51:00,87.7,66.2,29.54,WSW,245,3.0,15.0,49,0.00,,SKC,0.00,237.00,VWS V14.01,2013-06-28 19:51:00,
2013-06-28 15:52:00,87.6,67.2,29.54,SSE,158,5.0,15.0,51,0.00,,SKC,0.00,237.00,VWS V14.01,2013-06-28 19:52:00,
2013-06-28 15:53:00,87.6,66.1,29.54,SSW,212,9.0,16.0,49,0.00,,SKC,0.00,237.00,VWS V14.01,2013-06-28 19:53:00,
2013-06-28 15:55:00,87.4,64.7,29.54,WSW,250,4.0,16.0,47,0.00,,SKC,0.00,905.00,VWS V14.01,2013-06-28 19:55:00,
2013-06-28 15:56:00,87.4,64.7,29.54,NW,304,4.0,16.0,47,0.00,,SKC,0.00,221.00,VWS V14.01,2013-06-28 19:56:00,
2013-06-28 15:57:00,87.4,64.7,29.53,WSW,245,7.0,16.0,47,0.00,,SKC,0.00,221.00,VWS V14.01,2013-06-28 19:57:00,
2013-06-28 15:58:00,87.3,64.6,29.54,West,279,5.0,16.0,47,0.00,,SKC,0.00,221.00,VWS V14.01,2013-06-28 19:58:00,
2013-06-28 16:00:00,87.4,65.9,29.53,SSW,206,7.0,16.0,49,0.00,,SKC,0.00,877.00,VWS V14.01,2013-06-28 20:00:00,
2013-06-28 16:01:00,87.3,65.2,29.53,WNW,302,2.0,4.0,48,0.00,,SKC,0.00,877.00,VWS V14.01,2013-06-28 20:01:00,
2013-06-28 16:02:00,87.3,65.2,29.53,North,5,1.0,7.0,48,0.00,,SKC,0.00,877.00,VWS V14.01,2013-06-28 20:02:00,
2013-06-28 16:03:00,87.3,65.2,29.53,NNE,24,1.0,7.0,48,0.00,,SKC,0.00,877.00,VWS V14.01,2013-06-28 20:03:00,
2013-06-28 16:05:00,87.5,66.0,29.53,NE,54,2.0,7.0,49,0.00,,SKC,0.00,172.00,VWS V14.01,2013-06-28 20:05:00,
2013-06-28 16:06:00,87.6,66.1,29.52,SSW,206,5.0,7.0,49,0.00,,SKC,0.00,172.00,VWS V14.01,2013-06-28 20:06:00,
2013-06-28 16:07:00,87.5,67.2,29.52,NNW,336,2.0,7.0,51,0.00,,SKC,0.00,814.00,VWS V14.01,2013-06-28 20:07:00,
2013-06-28 16:08:00,87.5,67.2,29.52,NNW,335,2.0,7.0,51,0.00,,SKC,0.00,814.00,VWS V14.01,2013-06-28 20:08:00,
2013-06-28 16:10:00,88.0,67.6,29.52,NNW,327,0.0,7.0,51,0.00,,SKC,0.00,786.00,VWS V14.01,2013-06-28 20:10:00,
2013-06-28 16:11:00,88.4,69.1,29.52,NNW,344,2.0,7.0,53,0.00,,SKC,0.00,796.00,VWS V14.01,2013-06-28 20:11:00,
2013-06-28 16:12:00,88.4,66.2,29.52,SW,227,1.0,7.0,48,0.00,,SKC,0.00,153.00,VWS V14.01,2013-06-28 20:12:00,
2013-06-28 16:13:00,88.4,66.2,29.52,SE,133,2.0,7.0,48,0.00,,SKC,0.00,153.00,VWS V14.01,2013-06-28 20:13:00,
2013-06-28 16:14:00,88.3,66.1,29.52,SE,138,2.0,7.0,48,0.00,,SKC,0.00,153.00,VWS V14.01,2013-06-28 20:14:00,
2013-06-28 16:15:00,88.0,66.5,29.52,NW,309,2.0,7.0,49,0.00,,SKC,0.00,153.00,VWS V14.01,2013-06-28 20:15:00,
2013-06-28 16:16:00,87.9,66.9,29.52,NNW,338,2.0,7.0,50,0.00,,SKC,0.00,149.00,VWS V14.01,2013-06-28 20:16:00,
2013-06-28 16:18:00,87.8,67.4,29.52,NNW,342,0.0,7.0,51,0.00,,SKC,0.00,179.00,VWS V14.01,2013-06-28 20:18:00,
2013-06-28 16:19:00,87.7,67.3,29.52,NNW,343,3.0,7.0,51,0.00,,SKC,0.00,179.00,VWS V14.01,2013-06-28 20:19:00,
2013-06-28 16:21:00,87.7,68.5,29.52,NNW,343,3.0,7.0,53,0.00,,SKC,0.00,179.00,VWS V14.01,2013-06-28 20:21:00,
2013-06-28 16:22:00,87.6,68.4,29.52,NW,319,8.0,9.0,53,0.00,,SKC,0.00,826.00,VWS V14.01,2013-06-28 20:22:00,
2013-06-28 16:23:00,87.5,67.2,29.52,NW,325,5.0,9.0,51,0.00,,SKC,0.00,160.00,VWS V14.01,2013-06-28 20:23:00,
2013-06-28 16:24:00,87.5,67.2,29.52,WNW,294,0.0,9.0,51,0.00,,SKC,0.00,160.00,VWS V14.01,2013-06-28 20:24:00,
2013-06-28 16:26:00,87.4,68.2,29.52,WNW,294,0.0,9.0,53,0.00,,SKC,0.00,158.00,VWS V14.01,2013-06-28 20:26:00,
2013-06-28 16:27:00,87.2,68.5,29.52,NW,319,5.0,11.0,54,0.00,,SKC,0.00,148.00,VWS V14.01,2013-06-28 20:27:00,
2013-06-28 16:28:00,87.1,67.4,29.52,WNW,295,1.0,11.0,52,0.00,,SKC,0.00,160.00,VWS V14.01,2013-06-28 20:28:00,
2013-06-28 16:29:00,87.1,67.4,29.52,WNW,298,3.0,11.0,52,0.00,,SKC,0.00,188.00,VWS V14.01,2013-06-28 20:29:00,
2013-06-28 16:30:00,86.9,67.7,29.52,NW,311,3.0,11.0,53,0.00,,SKC,0.00,188.00,VWS V14.01,2013-06-28 20:30:00,
2013-06-28 16:31:00,86.6,67.4,29.52,West,279,1.0,11.0,53,0.00,,SKC,0.00,188.00,VWS V14.01,2013-06-28 20:31:00,
2013-06-28 16:32:00,86.5,67.9,29.52,NW,317,0.0,4.0,54,0.00,,SKC,0.00,800.00,VWS V14.01,2013-06-28 20:32:00,
2013-06-28 16:34:00,86.5,67.3,29.52,NNW,336,3.0,7.0,53,0.00,,SKC,0.00,751.00,VWS V14.01,2013-06-28 20:34:00,
2013-06-28 16:35:00,86.6,67.4,29.52,NW,323,2.0,7.0,53,0.00,,SKC,0.00,737.00,VWS V14.01,2013-06-28 20:35:00,
2013-06-28 16:36:00,86.9,68.3,29.52,NNW,339,3.0,7.0,54,0.00,,SKC,0.00,719.00,VWS V14.01,2013-06-28 20:36:00,
2013-06-28 16:38:00,87.1,67.9,29.52,WSW,242,1.0,8.0,53,0.00,,SKC,0.00,700.00,VWS V14.01,2013-06-28 20:38:00,
2013-06-28 16:39:00,87.1,67.4,29.51,WNW,302,0.0,8.0,52,0.00,,SKC,0.00,745.00,VWS V14.01,2013-06-28 20:39:00,
2013-06-28 16:40:00,87.2,68.0,29.51,NW,305,7.0,9.0,53,0.00,,SKC,0.00,745.00,VWS V14.01,2013-06-28 20:40:00,
2013-06-28 16:41:00,87.2,68.0,29.51,NW,319,5.0,10.0,53,0.00,,SKC,0.00,107.00,VWS V14.01,2013-06-28 20:41:00,
2013-06-28 16:43:00,87.0,66.7,29.51,WNW,286,5.0,10.0,51,0.00,,SKC,0.00,105.00,VWS V14.01,2013-06-28 20:43:00,
2013-06-28 16:44:00,86.8,66.5,29.52,NW,315,2.0,10.0,51,0.00,,SKC,0.00,123.00,VWS V14.01,2013-06-28 20:44:00,
2013-06-28 16:45:00,86.8,67.1,29.52,WNW,287,3.0,10.0,52,0.00,,SKC,0.00,137.00,VWS V14.01,2013-06-28 20:45:00,
2013-06-28 16:46:00,86.6,66.9,29.51,WNW,282,1.0,10.0,52,0.00,,SKC,0.00,155.00,VWS V14.01,2013-06-28 20:46:00,
2013-06-28 16:49:00,86.2,66.5,29.52,North,360,4.0,10.0,52,0.00,,SKC,0.00,155.00,VWS V14.01,2013-06-28 20:49:00,
2013-06-28 16:50:00,86.2,66.5,29.52,NW,319,1.0,10.0,52,0.00,,SKC,0.00,777.00,VWS V14.01,2013-06-28 20:50:00,
2013-06-28 16:51:00,86.4,67.8,29.51,NNW,339,4.0,10.0,54,0.00,,SKC,0.00,763.00,VWS V14.01,2013-06-28 20:51:00,
2013-06-28 16:54:00,87.0,67.8,29.51,West,267,0.0,10.0,53,0.00,,SKC,0.00,703.00,VWS V14.01,2013-06-28 20:54:00,
2013-06-28 16:55:00,87.2,69.1,29.51,West,274,2.0,10.0,55,0.00,,SKC,0.00,700.00,VWS V14.01,2013-06-28 20:55:00,
2013-06-28 16:56:00,87.5,67.7,29.51,West,270,0.0,10.0,52,0.00,,SKC,0.00,684.00,VWS V14.01,2013-06-28 20:56:00,
2013-06-28 17:00:00,87.9,68.7,29.51,WNW,297,0.0,10.0,53,0.00,,SKC,0.00,659.00,VWS V14.01,2013-06-28 21:00:00,
2013-06-28 17:01:00,88.3,67.9,29.51,NW,314,2.0,5.0,51,0.00,,SKC,0.00,652.00,VWS V14.01,2013-06-28 21:01:00,
2013-06-28 17:05:00,88.5,68.1,29.51,NNW,332,4.0,5.0,51,0.00,,SKC,0.00,631.00,VWS V14.01,2013-06-28 21:05:00,
2013-06-28 17:06:00,88.6,68.7,29.50,NNW,328,5.0,6.0,52,0.00,,SKC,0.00,605.00,VWS V14.01,2013-06-28 21:06:00,
2013-06-28 17:07:00,88.5,68.1,29.50,NNW,339,3.0,6.0,51,0.00,,SKC,0.00,642.00,VWS V14.01,2013-06-28 21:07:00,
2013-06-28 17:10:00,88.3,69.0,29.50,NNW,342,5.0,8.0,53,0.00,,SKC,0.00,647.00,VWS V14.01,2013-06-28 21:10:00,
2013-06-28 17:11:00,88.2,67.2,29.50,West,273,2.0,8.0,50,0.00,,SKC,0.00,631.00,VWS V14.01,2013-06-28 21:11:00,
2013-06-28 17:13:00,87.9,67.5,29.50,NNW,343,7.0,9.0,51,0.00,,SKC,0.00,615.00,VWS V14.01,2013-06-28 21:13:00,
2013-06-28 17:15:00,87.7,67.9,29.50,NW,307,5.0,9.0,52,0.00,,SKC,0.00,619.00,VWS V14.01,2013-06-28 21:15:00,
2013-06-28 17:16:00,87.7,67.9,29.50,NNE,12,4.0,9.0,52,0.00,,SKC,0.00,624.00,VWS V14.01,2013-06-28 21:16:00,
2013-06-28 17:18:00,87.5,69.9,29.50,SW,219,0.0,9.0,56,0.00,,SKC,0.00,606.00,VWS V14.01,2013-06-28 21:18:00,
2013-06-28 17:20:00,87.5,68.3,29.50,NNW,336,9.0,9.0,53,0.00,,SKC,0.00,596.00,VWS V14.01,2013-06-28 21:20:00,
2013-06-28 17:21:00,87.5,68.3,29.50,NW,309,2.0,9.0,53,0.00,,SKC,0.00,596.00,VWS V14.01,2013-06-28 21:21:00,
2013-06-28 17:23:00,87.5,68.3,29.50,WNW,296,8.0,9.0,53,0.00,,SKC,0.00,582.00,VWS V14.01,2013-06-28 21:23:00,
2013-06-28 17:25:00,87.5,67.2,29.50,NNW,329,3.0,9.0,51,0.00,,SKC,0.00,90.00,VWS V14.01,2013-06-28 21:25:00,
2013-06-28 17:26:00,87.4,67.6,29.50,NNW,329,3.0,9.0,52,0.00,,SKC,0.00,93.00,VWS V14.01,2013-06-28 21:26:00,
2013-06-28 17:28:00,87.3,67.5,29.50,NNW,334,0.0,9.0,52,0.00,,SKC,0.00,95.00,VWS V14.01,2013-06-28 21:28:00,
2013-06-28 17:30:00,87.0,67.8,29.50,NNW,344,5.0,9.0,53,0.00,,SKC,0.00,127.00,VWS V14.01,2013-06-28 21:30:00,
2013-06-28 17:31:00,86.8,67.6,29.50,WNW,296,2.0,2.0,53,0.00,,SKC,0.00,218.00,VWS V14.01,2013-06-28 21:31:00,
2013-06-28 17:33:00,86.6,68.0,29.50,WNW,296,2.0,2.0,54,0.00,,SKC,0.00,603.00,VWS V14.01,2013-06-28 21:33:00,
2013-06-28 17:35:00,86.3,69.8,29.50,WNW,300,0.0,3.0,58,0.00,,SKC,0.00,557.00,VWS V14.01,2013-06-28 21:35:00,
2013-06-28 17:36:00,86.2,68.7,29.50,WNW,300,0.0,3.0,56,0.00,,SKC,0.00,557.00,VWS V14.01,2013-06-28 21:36:00,
2013-06-28 17:37:00,86.2,68.2,29.50,WNW,300,1.0,3.0,55,0.00,,SKC,0.00,557.00,VWS V14.01,2013-06-28 21:37:00,
2013-06-28 17:38:00,86.2,68.2,29.50,WNW,300,3.0,4.0,55,0.00,,SKC,0.00,538.00,VWS V14.01,2013-06-28 21:38:00,
2013-06-28 17:40:00,86.3,67.2,29.50,SSW,210,3.0,7.0,53,0.00,,SKC,0.00,65.00,VWS V14.01,2013-06-28 21:40:00,
2013-06-28 17:42:00,86.3,67.7,29.50,NW,315,0.0,7.0,54,0.00,,SKC,0.00,76.00,VWS V14.01,2013-06-28 21:42:00,
2013-06-28 17:43:00,86.3,66.6,29.50,NNW,337,3.0,7.0,52,0.00,,SKC,0.00,76.00,VWS V14.01,2013-06-28 21:43:00,
2013-06-28 17:44:00,86.3,67.7,29.50,NNW,336,1.0,7.0,54,0.00,,SKC,0.00,520.00,VWS V14.01,2013-06-28 21:44:00,
2013-06-28 17:46:00,86.2,67.6,29.50,NNW,332,0.0,7.0,54,0.00,,SKC,0.00,478.00,VWS V14.01,2013-06-28 21:46:00,
2013-06-28 17:47:00,86.3,68.8,29.50,NNW,333,0.0,7.0,56,0.00,,SKC,0.00,65.00,VWS V14.01,2013-06-28 21:47:00,
2013-06-28 17:48:00,86.4,66.7,29.50,ESE,117,2.0,7.0,52,0.00,,SKC,0.00,56.00,VWS V14.01,2013-06-28 21:48:00,
2013-06-28 17:49:00,86.4,66.7,29.50,ESE,117,1.0,7.0,52,0.00,,SKC,0.00,56.00,VWS V14.01,2013-06-28 21:49:00,
2013-06-28 17:51:00,86.4,66.7,29.50,NNW,347,2.0,7.0,52,0.00,,SKC,0.00,58.00,VWS V14.01,2013-06-28 21:51:00,
2013-06-28 17:52:00,86.3,66.6,29.50,NNW,336,2.0,7.0,52,0.00,,SKC,0.00,111.00,VWS V14.01,2013-06-28 21:52:00,
2013-06-28 17:53:00,86.2,66.5,29.50,NW,309,5.0,7.0,52,0.00,,SKC,0.00,111.00,VWS V14.01,2013-06-28 21:53:00,
2013-06-28 17:54:00,86.2,66.5,29.50,WNW,303,2.0,7.0,52,0.00,,SKC,0.00,111.00,VWS V14.01,2013-06-28 21:54:00,
2013-06-28 17:56:00,86.1,67.0,29.50,SSW,213,4.0,7.0,53,0.00,,SKC,0.00,515.00,VWS V14.01,2013-06-28 21:56:00,
2013-06-28 17:58:00,86.0,66.3,29.50,SSW,205,4.0,7.0,52,0.00,,SKC,0.00,81.00,VWS V14.01,2013-06-28 21:58:00,
2013-06-28 17:59:00,85.8,65.6,29.50,SSW,205,0.0,7.0,51,0.00,,SKC,0.00,81.00,VWS V14.01,2013-06-28 21:59:00,
2013-06-28 18:01:00,85.6,67.1,29.50,WNW,302,3.0,3.0,54,0.00,,SKC,0.00,93.00,VWS V14.01,2013-06-28 22:01:00,
2013-06-28 18:03:00,85.6,67.1,29.50,NNW,332,0.0,4.0,54,0.00,,SKC,0.00,98.00,VWS V14.01,2013-06-28 22:03:00,
2013-06-28 18:04:00,85.6,66.5,29.50,NNW,329,0.0,4.0,53,0.00,,SKC,0.00,98.00,VWS V14.01,2013-06-28 22:04:00,
2013-06-28 18:07:00,85.6,67.1,29.50,North,355,3.0,6.0,54,0.00,,SKC,0.00,114.00,VWS V14.01,2013-06-28 22:07:00,
2013-06-28 18:08:00,85.6,66.5,29.50,NNW,346,5.0,6.0,53,0.00,,SKC,0.00,462.00,VWS V14.01,2013-06-28 22:08:00,
2013-06-28 18:09:00,85.6,66.5,29.50,WNW,293,4.0,6.0,53,0.00,,SKC,0.00,466.00,VWS V14.01,2013-06-28 22:09:00,
2013-06-28 18:10:00,85.6,66.0,29.50,NNW,341,2.0,6.0,52,0.00,,SKC,0.00,448.00,VWS V14.01,2013-06-28 22:10:00,
2013-06-28 18:12:00,85.8,65.6,29.50,NW,306,0.0,6.0,51,0.00,,SKC,0.00,454.00,VWS V14.01,2013-06-28 22:12:00,
2013-06-28 18:13:00,86.0,67.4,29.50,South,186,3.0,6.0,54,0.00,,SKC,0.00,446.00,VWS V14.01,2013-06-28 22:13:00,
2013-06-28 18:14:00,86.0,67.4,29.50,South,187,1.0,6.0,54,0.00,,SKC,0.00,441.00,VWS V14.01,2013-06-28 22:14:00,
2013-06-28 18:15:00,86.0,67.4,29.50,SW,219,5.0,6.0,54,0.00,,SKC,0.00,436.00,VWS V14.01,2013-06-28 22:15:00,
2013-06-28 18:17:00,86.0,66.3,29.50,WNW,298,1.0,6.0,52,0.00,,SKC,0.00,413.00,VWS V14.01,2013-06-28 22:17:00,
2013-06-28 18:18:00,86.0,66.9,29.50,West,265,1.0,6.0,53,0.00,,SKC,0.00,410.00,VWS V14.01,2013-06-28 22:18:00,
2013-06-28 18:19:00,86.1,67.0,29.50,SSW,196,2.0,6.0,53,0.00,,SKC,0.00,401.00,VWS V14.01,2013-06-28 22:19:00,
2013-06-28 18:20:00,86.1,65.9,29.50,West,278,0.0,6.0,51,0.00,,SKC,0.00,396.00,VWS V14.01,2013-06-28 22:20:00,
2013-06-28 18:22:00,86.2,67.1,29.50,West,278,0.0,6.0,53,0.00,,SKC,0.00,392.00,VWS V14.01,2013-06-28 22:22:00,
2013-06-28 18:23:00,86.2,66.0,29.50,West,271,1.0,6.0,51,0.00,,SKC,0.00,392.00,VWS V14.01,2013-06-28 22:23:00,
2013-06-28 18:24:00,86.3,67.2,29.50,WNW,288,1.0,6.0,53,0.00,,SKC,0.00,388.00,VWS V14.01,2013-06-28 22:24:00,
2013-06-28 18:25:00,86.3,67.2,29.50,North,355,1.0,6.0,53,0.00,,SKC,0.00,385.00,VWS V14.01,2013-06-28 22:25:00,
2013-06-28 18:28:00,86.5,67.3,29.50,NW,321,0.0,6.0,53,0.00,,SKC,0.00,373.00,VWS V14.01,2013-06-28 22:28:00,
2013-06-28 18:29:00,86.5,66.8,29.50,WNW,295,0.0,6.0,52,0.00,,SKC,0.00,364.00,VWS V14.01,2013-06-28 22:29:00,
2013-06-28 18:30:00,86.5,66.8,29.50,WNW,292,1.0,6.0,52,0.00,,SKC,0.00,362.00,VWS V14.01,2013-06-28 22:30:00,
2013-06-28 18:31:00,86.5,66.2,29.50,WNW,292,0.0,6.0,51,0.00,,SKC,0.00,359.00,VWS V14.01,2013-06-28 22:31:00,
2013-06-28 18:33:00,86.6,66.3,29.50,WNW,302,2.0,2.0,51,0.00,,SKC,0.00,353.00,VWS V14.01,2013-06-28 22:33:00,
2013-06-28 18:35:00,86.6,66.3,29.50,WNW,295,0.0,3.0,51,0.00,,SKC,0.00,353.00,VWS V14.01,2013-06-28 22:35:00,
2013-06-28 18:36:00,86.7,65.3,29.50,NNW,340,7.0,7.0,49,0.00,,SKC,0.00,352.00,VWS V14.01,2013-06-28 22:36:00,
2013-06-28 18:38:00,86.8,64.8,29.50,NW,319,3.0,8.0,48,0.00,,SKC,0.00,341.00,VWS V14.01,2013-06-28 22:38:00,
2013-06-28 18:40:00,86.9,66.0,29.50,NW,315,2.0,8.0,50,0.00,,SKC,0.00,338.00,VWS V14.01,2013-06-28 22:40:00,
2013-06-28 18:41:00,86.9,65.5,29.50,WNW,293,3.0,8.0,49,0.00,,SKC,0.00,336.00,VWS V14.01,2013-06-28 22:41:00,
2013-06-28 18:44:00,86.9,64.9,29.50,NW,311,0.0,8.0,48,0.00,,SKC,0.00,316.00,VWS V14.01,2013-06-28 22:44:00,
2013-06-28 18:45:00,86.9,64.3,29.50,NW,312,2.0,8.0,47,0.00,,SKC,0.00,315.00,VWS V14.01,2013-06-28 22:45:00,
2013-06-28 18:46:00,86.9,64.3,29.51,NW,309,3.0,8.0,47,0.00,,SKC,0.00,313.00,VWS V14.01,2013-06-28 22:46:00,
2013-06-28 18:50:00,86.7,63.5,29.51,NW,305,0.0,8.0,46,0.00,,SKC,0.00,301.00,VWS V14.01,2013-06-28 22:50:00,
2013-06-28 18:51:00,86.7,63.5,29.51,NW,306,1.0,8.0,46,0.00,,SKC,0.00,299.00,VWS V14.01,2013-06-28 22:51:00,
2013-06-28 18:52:00,86.7,64.7,29.51,NW,308,0.0,8.0,48,0.00,,SKC,0.00,295.00,VWS V14.01,2013-06-28 22:52:00,
2013-06-28 18:55:00,86.8,64.2,29.51,WNW,298,0.0,8.0,47,0.00,,SKC,0.00,285.00,VWS V14.01,2013-06-28 22:55:00,
2013-06-28 18:56:00,86.8,63.6,29.52,WNW,302,5.0,8.0,46,0.00,,SKC,0.00,281.00,VWS V14.01,2013-06-28 22:56:00,
2013-06-28 18:57:00,86.7,62.8,29.52,WNW,300,0.0,8.0,45,0.00,,SKC,0.00,279.00,VWS V14.01,2013-06-28 22:57:00,
2013-06-28 19:00:00,86.8,64.2,29.52,WNW,300,0.0,8.0,47,0.00,,SKC,0.00,267.00,VWS V14.01,2013-06-28 23:00:00,
2013-06-28 19:01:00,86.8,65.4,29.52,WNW,300,0.0,0.0,49,0.00,,SKC,0.00,265.00,VWS V14.01,2013-06-28 23:01:00,
2013-06-28 19:02:00,86.8,64.8,29.52,WNW,300,0.0,1.0,48,0.00,,SKC,0.00,264.00,VWS V14.01,2013-06-28 23:02:00,
2013-06-28 19:05:00,87.1,65.1,29.52,WNW,300,0.0,1.0,48,0.00,,SKC,0.00,260.00,VWS V14.01,2013-06-28 23:05:00,
2013-06-28 19:06:00,87.1,65.1,29.52,WNW,300,0.0,1.0,48,0.00,,SKC,0.00,58.00,VWS V14.01,2013-06-28 23:06:00,
2013-06-28 19:07:00,87.1,65.1,29.52,WNW,300,0.0,1.0,48,0.00,,SKC,0.00,53.00,VWS V14.01,2013-06-28 23:07:00,
2013-06-28 19:08:00,87.1,65.1,29.52,NW,311,3.0,3.0,48,0.00,,SKC,0.00,51.00,VWS V14.01,2013-06-28 23:08:00,
2013-06-28 19:11:00,86.9,66.0,29.52,NW,309,0.0,4.0,50,0.00,,SKC,0.00,49.00,VWS V14.01,2013-06-28 23:11:00,
2013-06-28 19:12:00,86.5,64.5,29.52,NW,313,1.0,4.0,48,0.00,,SKC,0.00,56.00,VWS V14.01,2013-06-28 23:12:00,
2013-06-28 19:13:00,86.4,64.4,29.52,NW,323,3.0,4.0,48,0.00,,SKC,0.00,56.00,VWS V14.01,2013-06-28 23:13:00,
2013-06-28 19:16:00,85.8,63.9,29.52,WNW,298,0.0,4.0,48,0.00,,SKC,0.00,132.00,VWS V14.01,2013-06-28 23:16:00,
2013-06-28 19:17:00,85.7,63.8,29.52,WNW,300,1.0,4.0,48,0.00,,SKC,0.00,132.00,VWS V14.01,2013-06-28 23:17:00,
2013-06-28 19:18:00,85.6,63.7,29.53,NW,305,2.0,4.0,48,0.00,,SKC,0.00,178.00,VWS V14.01,2013-06-28 23:18:00,
2013-06-28 19:21:00,85.0,65.4,29.53,WNW,300,0.0,4.0,52,0.00,,SKC,0.00,223.00,VWS V14.01,2013-06-28 23:21:00,
2013-06-28 19:22:00,84.8,66.3,29.53,WNW,300,1.0,4.0,54,0.00,,SKC,0.00,218.00,VWS V14.01,2013-06-28 23:22:00,
2013-06-28 19:23:00,84.6,63.9,29.53,WNW,300,0.0,4.0,50,0.00,,SKC,0.00,206.00,VWS V14.01,2013-06-28 23:23:00,
2013-06-28 19:26:00,84.6,65.1,29.53,WNW,300,0.0,4.0,52,0.00,,SKC,0.00,186.00,VWS V14.01,2013-06-28 23:26:00,
2013-06-28 19:27:00,84.7,65.7,29.53,WNW,300,0.0,4.0,53,0.00,,SKC,0.00,176.00,VWS V14.01,2013-06-28 23:27:00,
2013-06-28 19:28:00,84.7,65.7,29.53,WNW,300,0.0,4.0,53,0.00,,SKC,0.00,176.00,VWS V14.01,2013-06-28 23:28:00,
2013-06-28 19:31:00,84.4,65.9,29.53,WNW,300,0.0,0.0,54,0.00,,SKC,0.00,37.00,VWS V14.01,2013-06-28 23:31:00,
2013-06-28 19:32:00,84.3,65.9,29.53,WNW,300,0.0,0.0,54,0.00,,SKC,0.00,35.00,VWS V14.01,2013-06-28 23:32:00,
2013-06-28 19:33:00,84.3,65.9,29.53,WNW,300,0.0,0.0,54,0.00,,SKC,0.00,35.00,VWS V14.01,2013-06-28 23:33:00,
2013-06-28 19:36:00,84.0,66.1,29.53,WNW,300,0.0,1.0,55,0.00,,SKC,0.00,39.00,VWS V14.01,2013-06-28 23:36:00,
2013-06-28 19:38:00,83.9,66.0,29.54,WNW,300,0.0,1.0,55,0.00,,SKC,0.00,132.00,VWS V14.01,2013-06-28 23:38:00,
2013-06-28 19:41:00,83.8,66.4,29.54,WNW,300,0.0,1.0,56,0.00,,SKC,0.00,109.00,VWS V14.01,2013-06-28 23:41:00,
2013-06-28 19:43:00,83.8,66.4,29.54,WNW,300,0.0,1.0,56,0.00,,SKC,0.00,32.00,VWS V14.01,2013-06-28 23:43:00,
2013-06-28 19:47:00,83.5,66.7,29.54,WNW,300,0.0,1.0,57,0.00,,SKC,0.00,51.00,VWS V14.01,2013-06-28 23:47:00,
2013-06-28 19:48:00,83.4,67.1,29.54,WNW,300,0.0,1.0,58,0.00,,SKC,0.00,95.00,VWS V14.01,2013-06-28 23:48:00,
2013-06-28 19:49:00,83.3,66.5,29.54,WNW,300,0.0,1.0,57,0.00,,SKC,0.00,97.00,VWS V14.01,2013-06-28 23:49:00,
2013-06-28 19:52:00,83.2,66.4,29.54,WNW,300,0.0,1.0,57,0.00,,SKC,0.00,84.00,VWS V14.01,2013-06-28 23:52:00,
2013-06-28 19:53:00,83.2,66.4,29.54,WNW,300,0.0,1.0,57,0.00,,SKC,0.00,83.00,VWS V14.01,2013-06-28 23:53:00,
2013-06-28 19:54:00,83.2,66.4,29.54,WNW,300,0.0,1.0,57,0.00,,SKC,0.00,47.00,VWS V14.01,2013-06-28 23:54:00,
2013-06-28 19:57:00,83.1,66.3,29.54,WNW,300,0.0,1.0,57,0.00,,SKC,0.00,69.00,VWS V14.01,2013-06-28 23:57:00,
2013-06-28 19:58:00,83.1,66.8,29.54,WNW,300,1.0,2.0,58,0.00,,SKC,0.00,69.00,VWS V14.01,2013-06-28 23:58:00,
2013-06-28 19:59:00,83.1,66.8,29.54,WNW,300,2.0,3.0,58,0.00,,SKC,0.00,65.00,VWS V14.01,2013-06-28 23:59:00,
2013-06-28 20:03:00,83.0,67.2,29.54,WNW,300,0.0,1.0,59,0.00,,SKC,0.00,58.00,VWS V14.01,2013-06-29 00:03:00,
2013-06-28 20:04:00,83.0,67.2,29.54,WNW,300,0.0,1.0,59,0.00,,SKC,0.00,53.00,VWS V14.01,2013-06-29 00:04:00,
2013-06-28 20:05:00,83.0,67.7,29.54,WNW,300,0.0,1.0,60,0.00,,SKC,0.00,51.00,VWS V14.01,2013-06-29 00:05:00,
2013-06-28 20:08:00,82.8,67.0,29.54,WNW,300,0.0,2.0,59,0.00,,SKC,0.00,46.00,VWS V14.01,2013-06-29 00:08:00,
2013-06-28 20:09:00,82.7,67.4,29.54,WNW,300,0.0,2.0,60,0.00,,SKC,0.00,42.00,VWS V14.01,2013-06-29 00:09:00,
2013-06-28 20:10:00,82.5,67.7,29.54,WNW,300,0.0,2.0,61,0.00,,SKC,0.00,40.00,VWS V14.01,2013-06-29 00:10:00,
2013-06-28 20:13:00,82.2,67.4,29.54,WNW,300,0.0,2.0,61,0.00,,SKC,0.00,33.00,VWS V14.01,2013-06-29 00:13:00,
2013-06-28 20:14:00,82.1,67.8,29.54,WNW,300,0.0,2.0,62,0.00,,SKC,0.00,32.00,VWS V14.01,2013-06-29 00:14:00,
2013-06-28 20:16:00,81.7,67.4,29.54,WNW,298,1.0,4.0,62,0.00,,SKC,0.00,28.00,VWS V14.01,2013-06-29 00:16:00,
2013-06-28 20:18:00,81.4,67.1,29.54,WNW,298,0.0,4.0,62,0.00,,SKC,0.00,21.00,VWS V14.01,2013-06-29 00:18:00,
2013-06-28 20:19:00,81.3,67.1,29.54,WNW,298,0.0,4.0,62,0.00,,SKC,0.00,18.00,VWS V14.01,2013-06-29 00:19:00,
2013-06-28 20:20:00,81.2,67.4,29.54,WNW,298,0.0,4.0,63,0.00,,SKC,0.00,14.00,VWS V14.01,2013-06-29 00:20:00,
2013-06-28 20:21:00,81.0,67.7,29.54,WNW,298,1.0,4.0,64,0.00,,SKC,0.00,14.00,VWS V14.01,2013-06-29 00:21:00,
2013-06-28 20:23:00,80.6,66.8,29.54,WNW,298,0.0,4.0,63,0.00,,SKC,0.00,12.00,VWS V14.01,2013-06-29 00:23:00,
2013-06-28 20:24:00,80.5,66.3,29.54,WNW,298,0.0,4.0,62,0.00,,SKC,0.00,12.00,VWS V14.01,2013-06-29 00:24:00,
2013-06-28 20:25:00,80.4,65.7,29.54,WNW,298,0.0,4.0,61,0.00,,SKC,0.00,11.00,VWS V14.01,2013-06-29 00:25:00,
2013-06-28 20:26:00,80.2,65.5,29.54,WNW,298,0.0,4.0,61,0.00,,SKC,0.00,11.00,VWS V14.01,2013-06-29 00:26:00,
2013-06-28 20:28:00,80.1,65.9,29.54,WNW,298,0.0,4.0,62,0.00,,SKC,0.00,9.00,VWS V14.01,2013-06-29 00:28:00,
2013-06-28 20:29:00,80.0,65.8,29.54,WNW,298,0.0,4.0,62,0.00,,SKC,0.00,9.00,VWS V14.01,2013-06-29 00:29:00,
2013-06-28 20:30:00,79.9,65.7,29.54,WNW,298,0.0,4.0,62,0.00,,SKC,0.00,9.00,VWS V14.01,2013-06-29 00:30:00,
2013-06-28 20:31:00,79.8,66.1,29.54,WNW,298,0.0,4.0,63,0.00,,SKC,0.00,9.00,VWS V14.01,2013-06-29 00:31:00,
2013-06-28 20:33:00,79.5,64.4,29.54,WNW,298,0.0,1.0,60,0.00,,SKC,0.00,7.00,VWS V14.01,2013-06-29 00:33:00,
2013-06-28 20:34:00,79.4,64.8,29.54,WNW,298,0.0,1.0,61,0.00,,SKC,0.00,7.00,VWS V14.01,2013-06-29 00:34:00,
2013-06-28 20:35:00,79.3,65.2,29.54,WNW,298,0.0,1.0,62,0.00,,SKC,0.00,7.00,VWS V14.01,2013-06-29 00:35:00,
2013-06-28 20:36:00,79.2,65.1,29.54,WNW,298,0.0,1.0,62,0.00,,SKC,0.00,7.00,VWS V14.01,2013-06-29 00:36:00,
2013-06-28 20:38:00,79.1,64.5,29.54,WNW,298,0.0,1.0,61,0.00,,SKC,0.00,5.00,VWS V14.01,2013-06-29 00:38:00,
2013-06-28 20:40:00,79.0,64.9,29.54,WNW,298,2.0,2.0,62,0.00,,SKC,0.00,5.00,VWS V14.01,2013-06-29 00:40:00,
2013-06-28 20:42:00,78.9,64.3,29.54,WSW,252,0.0,4.0,61,0.00,,SKC,0.00,0.00,VWS V14.01,2013-06-29 00:42:00,
2013-06-28 20:44:00,78.7,63.7,29.54,WSW,252,0.0,4.0,60,0.00,,SKC,0.00,0.00,VWS V14.01,2013-06-29 00:44:00,
2013-06-28 20:45:00,78.6,63.6,29.54,WSW,252,0.0,4.0,60,0.00,,SKC,0.00,0.00,VWS V14.01,2013-06-29 00:45:00,
2013-06-28 20:47:00,78.5,63.0,29.54,WSW,252,0.0,4.0,59,0.00,,SKC,0.00,0.00,VWS V14.01,2013-06-29 00:47:00,
2013-06-28 20:49:00,78.4,62.4,29.54,WSW,252,0.0,4.0,58,0.00,,SKC,0.00,0.00,VWS V14.01,2013-06-29 00:49:00,
2013-06-28 20:50:00,78.4,62.4,29.54,West,262,1.0,4.0,58,0.00,,SKC,0.00,0.00,VWS V14.01,2013-06-29 00:50:00,
2013-06-28 20:52:00,78.3,62.3,29.54,West,263,0.0,4.0,58,0.00,,SKC,0.00,0.00,VWS V14.01,2013-06-29 00:52:00,
2013-06-28 20:54:00,78.3,62.3,29.54,West,263,0.0,4.0,58,0.00,,SKC,0.00,0.00,VWS V14.01,2013-06-29 00:54:00,
2013-06-28 20:55:00,78.2,61.7,29.54,West,262,0.0,4.0,57,0.00,,SKC,0.00,0.00,VWS V14.01,2013-06-29 00:55:00,
2013-06-28 20:56:00,78.2,62.2,29.54,West,262,0.0,4.0,58,0.00,,SKC,0.00,0.00,VWS V14.01,2013-06-29 00:56:00,
2013-06-28 20:58:00,78.2,61.2,29.54,West,263,0.0,4.0,56,0.00,,SKC,0.00,0.00,VWS V14.01,2013-06-29 00:58:00,
2013-06-28 20:59:00,78.2,61.7,29.55,West,263,0.0,4.0,57,0.00,,SKC,0.00,0.00,VWS V14.01,2013-06-29 00:59:00,
2013-06-28 21:00:00,78.1,62.1,29.55,West,262,0.0,4.0,58,0.00,,SKC,0.00,0.00,VWS V14.01,2013-06-29 01:00:00,
2013-06-28 21:01:00,78.1,61.6,29.55,West,263,0.0,4.0,57,0.00,,SKC,0.00,0.00,VWS V14.01,2013-06-29 01:01:00,
2013-06-28 21:03:00,78.1,61.1,29.55,West,266,1.0,2.0,56,0.00,,SKC,0.00,0.00,VWS V14.01,2013-06-29 01:03:00,
2013-06-28 21:04:00,78.0,61.0,29.55,West,266,0.0,2.0,56,0.00,,SKC,0.00,0.00,VWS V14.01,2013-06-29 01:04:00,
2013-06-28 21:05:00,78.0,61.5,29.55,West,266,0.0,2.0,57,0.00,,SKC,0.00,0.00,VWS V14.01,2013-06-29 01:05:00,
2013-06-28 21:06:00,78.0,61.5,29.55,West,266,0.0,2.0,57,0.00,,SKC,0.00,0.00,VWS V14.01,2013-06-29 01:06:00,
2013-06-28 21:07:00,78.0,61.5,29.55,West,266,0.0,2.0,57,0.00,,SKC,0.00,0.00,VWS V14.01,2013-06-29 01:07:00,
2013-06-28 21:08:00,78.0,62.0,29.55,West,266,0.0,2.0,58,0.00,,SKC,0.00,0.00,VWS V14.01,2013-06-29 01:08:00,
2013-06-28 21:09:00,77.9,62.4,29.55,West,266,0.0,2.0,59,0.00,,SKC,0.00,0.00,VWS V14.01,2013-06-29 01:09:00,
2013-06-28 21:11:00,77.8,62.8,29.55,West,266,0.0,2.0,60,0.00,,SKC,0.00,0.00,VWS V14.01,2013-06-29 01:11:00,
2013-06-28 21:12:00,77.8,62.8,29.55,West,266,0.0,2.0,60,0.00,,SKC,0.00,0.00,VWS V14.01,2013-06-29 01:12:00,
2013-06-28 21:13:00,77.5,62.1,29.55,West,265,0.0,3.0,59,0.00,,SKC,0.00,0.00,VWS V14.01,2013-06-29 01:13:00,
2013-06-28 21:15:00,77.4,61.5,29.55,West,265,0.0,3.0,58,0.00,,SKC,0.00,0.00,VWS V14.01,2013-06-29 01:15:00,
2013-06-28 21:16:00,77.3,61.4,29.55,West,265,0.0,3.0,58,0.00,,SKC,0.00,0.00,VWS V14.01,2013-06-29 01:16:00,
2013-06-28 21:17:00,77.3,60.9,29.55,SW,231,2.0,4.0,57,0.00,,SKC,0.00,0.00,VWS V14.01,2013-06-29 01:17:00,
2013-06-28 21:19:00,77.3,60.9,29.55,SW,231,0.0,4.0,57,0.00,,SKC,0.00,0.00,VWS V14.01,2013-06-29 01:19:00,
2013-06-28 21:20:00,77.3,60.9,29.55,SW,231,0.0,4.0,57,0.00,,SKC,0.00,0.00,VWS V14.01,2013-06-29 01:20:00,
2013-06-28 21:21:00,77.4,61.0,29.55,SW,231,0.0,4.0,57,0.00,,SKC,0.00,0.00,VWS V14.01,2013-06-29 01:21:00,
2013-06-28 21:24:00,77.3,62.8,29.55,SSW,200,0.0,4.0,61,0.00,,SKC,0.00,0.00,VWS V14.01,2013-06-29 01:24:00,
2013-06-28 21:25:00,77.3,63.3,29.55,SSW,200,0.0,4.0,62,0.00,,SKC,0.00,0.00,VWS V14.01,2013-06-29 01:25:00,
2013-06-28 21:26:00,77.2,63.2,29.55,South,173,1.0,4.0,62,0.00,,SKC,0.00,0.00,VWS V14.01,2013-06-29 01:26:00,
2013-06-28 21:27:00,77.1,63.1,29.55,South,173,0.0,4.0,62,0.00,,SKC,0.00,0.00,VWS V14.01,2013-06-29 01:27:00,
2013-06-28 21:29:00,77.0,62.5,29.55,South,173,1.0,4.0,61,0.00,,SKC,0.00,0.00,VWS V14.01,2013-06-29 01:29:00,
2013-06-28 21:31:00,77.0,61.1,29.55,South,173,0.0,4.0,58,0.00,,SKC,0.00,0.00,VWS V14.01,2013-06-29 01:31:00,
2013-06-28 21:32:00,76.9,61.0,29.55,South,173,0.0,0.0,58,0.00,,SKC,0.00,0.00,VWS V14.01,2013-06-29 01:32:00,
2013-06-28 21:34:00,76.9,61.5,29.55,South,173,1.0,1.0,59,0.00,,SKC,0.00,0.00,VWS V14.01,2013-06-29 01:34:00,
2013-06-28 21:36:00,76.8,60.9,29.55,South,173,1.0,1.0,58,0.00,,SKC,0.00,0.00,VWS V14.01,2013-06-29 01:36:00,
2013-06-28 21:37:00,76.8,61.4,29.55,SSW,205,4.0,6.0,59,0.00,,SKC,0.00,0.00,VWS V14.01,2013-06-29 01:37:00,
2013-06-28 21:39:00,77.1,61.2,29.55,SSW,203,2.0,6.0,58,0.00,,SKC,0.00,0.00,VWS V14.01,2013-06-29 01:39:00,
2013-06-28 21:41:00,77.3,61.4,29.55,SSW,203,1.0,6.0,58,0.00,,SKC,0.00,0.00,VWS V14.01,2013-06-29 01:41:00,
2013-06-28 21:42:00,77.3,61.9,29.55,SSW,203,0.0,6.0,59,0.00,,SKC,0.00,0.00,VWS V14.01,2013-06-29 01:42:00,
2013-06-28 21:44:00,77.3,61.9,29.55,SSW,203,0.0,6.0,59,0.00,,SKC,0.00,0.00,VWS V14.01,2013-06-29 01:44:00,
2013-06-28 21:45:00,77.3,61.9,29.55,SSW,203,0.0,6.0,59,0.00,,SKC,0.00,0.00,VWS V14.01,2013-06-29 01:45:00,
2013-06-28 21:46:00,77.3,62.8,29.55,SSW,203,0.0,6.0,61,0.00,,SKC,0.00,0.00,VWS V14.01,2013-06-29 01:46:00,
2013-06-28 21:48:00,77.2,62.2,29.55,SSW,203,0.0,6.0,60,0.00,,SKC,0.00,0.00,VWS V14.01,2013-06-29 01:48:00,
2013-06-28 21:49:00,77.2,61.8,29.55,SSW,203,0.0,6.0,59,0.00,,SKC,0.00,0.00,VWS V14.01,2013-06-29 01:49:00,
2013-06-28 21:50:00,77.1,61.7,29.55,SSW,203,0.0,6.0,59,0.00,,SKC,0.00,0.00,VWS V14.01,2013-06-29 01:50:00,
2013-06-28 21:52:00,77.1,62.2,29.55,SSW,203,0.0,6.0,60,0.00,,SKC,0.00,0.00,VWS V14.01,2013-06-29 01:52:00,
2013-06-28 21:53:00,77.0,62.5,29.55,SSW,203,0.0,6.0,61,0.00,,SKC,0.00,0.00,VWS V14.01,2013-06-29 01:53:00,
2013-06-28 21:54:00,76.9,62.4,29.55,SSW,203,0.0,6.0,61,0.00,,SKC,0.00,0.00,VWS V14.01,2013-06-29 01:54:00,
2013-06-28 21:55:00,76.8,62.3,29.55,SSW,203,0.0,6.0,61,0.00,,SKC,0.00,0.00,VWS V14.01,2013-06-29 01:55:00,
2013-06-28 21:57:00,76.7,62.2,29.55,SSW,203,0.0,6.0,61,0.00,,SKC,0.00,0.00,VWS V14.01,2013-06-29 01:57:00,
2013-06-28 21:58:00,76.7,62.2,29.55,SSW,203,0.0,6.0,61,0.00,,SKC,0.00,0.00,VWS V14.01,2013-06-29 01:58:00,
2013-06-28 21:59:00,76.7,63.2,29.56,SSW,203,0.0,6.0,63,0.00,,SKC,0.00,0.00,VWS V14.01,2013-06-29 01:59:00,
2013-06-28 22:00:00,76.6,62.6,29.56,SSW,203,0.0,6.0,62,0.00,,SKC,0.00,0.00,VWS V14.01,2013-06-29 02:00:00,
2013-06-28 22:02:00,76.4,63.3,29.56,SSW,203,1.0,1.0,64,0.00,,SKC,0.00,0.00,VWS V14.01,2013-06-29 02:02:00,
2013-06-28 22:03:00,76.3,63.2,29.56,SSW,203,1.0,1.0,64,0.00,,SKC,0.00,0.00,VWS V14.01,2013-06-29 02:03:00,
2013-06-28 22:04:00,76.0,63.0,29.56,SSW,203,0.0,1.0,64,0.00,,SKC,0.00,0.00,VWS V14.01,2013-06-29 02:04:00,
2013-06-28 22:05:00,75.8,63.2,29.56,SSW,203,0.0,1.0,65,0.00,,SKC,0.00,0.00,VWS V14.01,2013-06-29 02:05:00,
2013-06-28 22:07:00,75.7,63.5,29.56,SSW,203,0.0,2.0,66,0.00,,SKC,0.00,0.00,VWS V14.01,2013-06-29 02:07:00,
2013-06-28 22:08:00,75.7,63.5,29.56,SSW,203,0.0,2.0,66,0.00,,SKC,0.00,0.00,VWS V14.01,2013-06-29 02:08:00,
2013-06-28 22:09:00,75.7,63.5,29.56,SSW,203,1.0,2.0,66,0.00,,SKC,0.00,0.00,VWS V14.01,2013-06-29 02:09:00,
2013-06-28 22:11:00,75.8,63.2,29.56,SSW,203,1.0,2.0,65,0.00,,SKC,0.00,0.00,VWS V14.01,2013-06-29 02:11:00,
2013-06-28 22:12:00,75.9,63.3,29.56,SSW,203,2.0,2.0,65,0.00,,SKC,0.00,0.00,VWS V14.01,2013-06-29 02:12:00,
2013-06-28 22:13:00,76.0,63.4,29.56,SSW,209,2.0,2.0,65,0.00,,SKC,0.00,0.00,VWS V14.01,2013-06-29 02:13:00,
2013-06-28 22:14:00,76.0,63.8,29.56,West,268,0.0,3.0,66,0.00,,SKC,0.00,0.00,VWS V14.01,2013-06-29 02:14:00,
2013-06-28 22:16:00,75.9,64.2,29.56,West,267,1.0,3.0,67,0.00,,SKC,0.00,0.00,VWS V14.01,2013-06-29 02:16:00,
2013-06-28 22:18:00,75.6,63.9,29.56,SW,215,2.0,3.0,67,0.00,,SKC,0.00,0.00,VWS V14.01,2013-06-29 02:18:00,
2013-06-28 22:20:00,75.6,64.3,29.56,SW,214,0.0,4.0,68,0.00,,SKC,0.00,0.00,VWS V14.01,2013-06-29 02:20:00,
2013-06-28 22:21:00,75.6,64.3,29.56,SW,214,0.0,4.0,68,0.00,,SKC,0.00,0.00,VWS V14.01,2013-06-29 02:21:00,
2013-06-28 22:23:00,75.5,64.2,29.57,SW,214,3.0,4.0,68,0.00,,SKC,0.00,0.00,VWS V14.01,2013-06-29 02:23:00,
2013-06-28 22:25:00,75.5,64.2,29.57,SSW,212,1.0,6.0,68,0.00,,SKC,0.00,0.00,VWS V14.01,2013-06-29 02:25:00,
2013-06-28 22:27:00,75.6,64.3,29.57,SW,215,2.0,6.0,68,0.00,,SKC,0.00,0.00,VWS V14.01,2013-06-29 02:27:00,
2013-06-28 22:28:00,75.6,64.3,29.57,SW,215,1.0,6.0,68,0.00,,SKC,0.00,0.00,VWS V14.01,2013-06-29 02:28:00,
2013-06-28 22:30:00,75.7,64.4,29.57,SSW,213,5.0,6.0,68,0.00,,SKC,0.00,0.00,VWS V14.01,2013-06-29 02:30:00,
2013-06-28 22:32:00,75.8,64.5,29.57,SW,215,3.0,4.0,68,0.00,,SKC,0.00,0.00,VWS V14.01,2013-06-29 02:32:00,
2013-06-28 22:33:00,75.9,64.6,29.57,SSW,209,2.0,6.0,68,0.00,,SKC,0.00,0.00,VWS V14.01,2013-06-29 02:33:00,
2013-06-28 22:34:00,76.0,64.7,29.57,SSW,210,4.0,6.0,68,0.00,,SKC,0.00,0.00,VWS V14.01,2013-06-29 02:34:00,
2013-06-28 22:35:00,76.0,64.7,29.57,SSW,211,5.0,7.0,68,0.00,,SKC,0.00,0.00,VWS V14.01,2013-06-29 02:35:00,
2013-06-28 22:37:00,76.0,64.7,29.57,SSW,211,1.0,7.0,68,0.00,,SKC,0.00,0.00,VWS V14.01,2013-06-29 02:37:00,
2013-06-28 22:38:00,76.0,65.1,29.57,SSW,211,4.0,7.0,69,0.00,,SKC,0.00,0.00,VWS V14.01,2013-06-29 02:38:00,
2013-06-28 22:39:00,75.9,65.0,29.57,SSW,213,5.0,7.0,69,0.00,,SKC,0.00,0.00,VWS V14.01,2013-06-29 02:39:00,
2013-06-28 22:40:00,75.9,64.6,29.57,SSW,213,1.0,7.0,68,0.00,,SKC,0.00,0.00,VWS V14.01,2013-06-29 02:40:00,
2013-06-28 22:42:00,75.9,65.0,29.58,SW,215,1.0,7.0,69,0.00,,SKC,0.00,0.00,VWS V14.01,2013-06-29 02:42:00,
2013-06-28 22:43:00,75.9,65.0,29.58,SW,215,0.0,7.0,69,0.00,,SKC,0.00,0.00,VWS V14.01,2013-06-29 02:43:00,
2013-06-28 22:44:00,75.9,65.0,29.58,SW,215,3.0,7.0,69,0.00,,SKC,0.00,0.00,VWS V14.01,2013-06-29 02:44:00,
2013-06-28 22:45:00,75.7,65.2,29.58,SW,215,4.0,7.0,70,0.00,,SKC,0.00,0.00,VWS V14.01,2013-06-29 02:45:00,
2013-06-28 22:47:00,75.6,65.1,29.58,SW,215,1.0,7.0,70,0.00,,SKC,0.00,0.00,VWS V14.01,2013-06-29 02:47:00,
2013-06-28 22:49:00,75.5,65.0,29.58,SW,215,0.0,7.0,70,0.00,,SKC,0.00,0.00,VWS V14.01,2013-06-29 02:49:00,
2013-06-28 22:50:00,75.4,65.3,29.58,SW,215,0.0,7.0,71,0.00,,SKC,0.00,0.00,VWS V14.01,2013-06-29 02:50:00,
2013-06-28 22:53:00,75.3,65.3,29.58,SW,215,0.0,7.0,71,0.00,,SKC,0.00,0.00,VWS V14.01,2013-06-29 02:53:00,
2013-06-28 22:54:00,75.2,65.2,29.58,SW,215,0.0,7.0,71,0.00,,SKC,0.00,0.00,VWS V14.01,2013-06-29 02:54:00,
2013-06-28 22:56:00,75.1,65.1,29.58,SW,215,0.0,7.0,71,0.00,,SKC,0.00,0.00,VWS V14.01,2013-06-29 02:56:00,
2013-06-28 22:58:00,75.1,65.1,29.58,SW,215,0.0,7.0,71,0.00,,SKC,0.00,0.00,VWS V14.01,2013-06-29 02:58:00,
2013-06-28 22:59:00,75.0,65.0,29.58,SW,215,0.0,7.0,71,0.00,,SKC,0.00,0.00,VWS V14.01,2013-06-29 02:59:00,
2013-06-28 23:00:00,75.0,65.4,29.58,SW,215,0.0,7.0,72,0.00,,SKC,0.00,0.00,VWS V14.01,2013-06-29 03:00:00,
2013-06-28 23:01:00,75.0,65.4,29.58,SW,215,1.0,7.0,72,0.00,,SKC,0.00,0.00,VWS V14.01,2013-06-29 03:01:00,
2013-06-28 23:03:00,74.9,65.3,29.58,SW,215,0.0,1.0,72,0.00,,SKC,0.00,0.00,VWS V14.01,2013-06-29 03:03:00,
2013-06-28 23:04:00,74.8,65.2,29.58,SW,215,1.0,1.0,72,0.00,,SKC,0.00,0.00,VWS V14.01,2013-06-29 03:04:00,
2013-06-28 23:05:00,74.7,65.1,29.58,SW,215,0.0,1.0,72,0.00,,SKC,0.00,0.00,VWS V14.01,2013-06-29 03:05:00,
2013-06-28 23:06:00,74.6,65.0,29.58,SW,215,0.0,1.0,72,0.00,,SKC,0.00,0.00,VWS V14.01,2013-06-29 03:06:00,
2013-06-28 23:08:00,74.5,65.3,29.58,SW,215,0.0,1.0,73,0.00,,SKC,0.00,0.00,VWS V14.01,2013-06-29 03:08:00,
2013-06-28 23:09:00,74.4,65.2,29.59,SW,215,0.0,1.0,73,0.00,,SKC,0.00,0.00,VWS V14.01,2013-06-29 03:09:00,
2013-06-28 23:10:00,74.4,65.2,29.59,SW,215,0.0,1.0,73,0.00,,SKC,0.00,0.00,VWS V14.01,2013-06-29 03:10:00,
2013-06-28 23:11:00,74.4,65.2,29.59,SW,215,1.0,1.0,73,0.00,,SKC,0.00,0.00,VWS V14.01,2013-06-29 03:11:00,
2013-06-28 23:13:00,74.2,65.0,29.59,SW,215,0.0,1.0,73,0.00,,SKC,0.00,0.00,VWS V14.01,2013-06-29 03:13:00,
2013-06-28 23:14:00,74.1,64.9,29.59,SW,215,0.0,1.0,73,0.00,,SKC,0.00,0.00,VWS V14.01,2013-06-29 03:14:00,
2013-06-28 23:15:00,74.1,64.9,29.59,SW,215,0.0,1.0,73,0.00,,SKC,0.00,0.00,VWS V14.01,2013-06-29 03:15:00,
2013-06-28 23:16:00,74.0,65.2,29.59,SW,215,0.0,1.0,74,0.00,,SKC,0.00,0.00,VWS V14.01,2013-06-29 03:16:00,
2013-06-28 23:18:00,73.9,65.1,29.59,SW,215,0.0,1.0,74,0.00,,SKC,0.00,0.00,VWS V14.01,2013-06-29 03:18:00,
2013-06-28 23:20:00,73.9,65.1,29.59,SW,215,0.0,1.0,74,0.00,,SKC,0.00,0.00,VWS V14.01,2013-06-29 03:20:00,
2013-06-28 23:21:00,73.9,65.1,29.59,SW,215,0.0,1.0,74,0.00,,SKC,0.00,0.00,VWS V14.01,2013-06-29 03:21:00,
2013-06-28 23:23:00,73.8,65.0,29.59,SW,215,0.0,1.0,74,0.00,,SKC,0.00,0.00,VWS V14.01,2013-06-29 03:23:00,
2013-06-28 23:25:00,73.7,64.9,29.59,SW,215,0.0,1.0,74,0.00,,SKC,0.00,0.00,VWS V14.01,2013-06-29 03:25:00,
2013-06-28 23:26:00,73.7,65.3,29.59,SW,215,0.0,1.0,75,0.00,,SKC,0.00,0.00,VWS V14.01,2013-06-29 03:26:00,
2013-06-28 23:28:00,73.6,65.2,29.59,SW,215,0.0,1.0,75,0.00,,SKC,0.00,0.00,VWS V14.01,2013-06-29 03:28:00,
2013-06-28 23:30:00,73.6,65.2,29.59,SW,215,0.0,1.0,75,0.00,,SKC,0.00,0.00,VWS V14.01,2013-06-29 03:30:00,
2013-06-28 23:31:00,73.5,65.1,29.59,WSW,245,3.0,3.0,75,0.00,,SKC,0.00,0.00,VWS V14.01,2013-06-29 03:31:00,
2013-06-28 23:32:00,73.5,65.1,29.59,WSW,245,0.0,3.0,75,0.00,,SKC,0.00,0.00,VWS V14.01,2013-06-29 03:32:00,
2013-06-28 23:33:00,73.4,65.0,29.59,WSW,245,0.0,3.0,75,0.00,,SKC,0.00,0.00,VWS V14.01,2013-06-29 03:33:00,
2013-06-28 23:35:00,73.4,65.0,29.59,WSW,245,1.0,3.0,75,0.00,,SKC,0.00,0.00,VWS V14.01,2013-06-29 03:35:00,
2013-06-28 23:36:00,73.3,65.3,29.59,WSW,245,1.0,3.0,76,0.00,,SKC,0.00,0.00,VWS V14.01,2013-06-29 03:36:00,
2013-06-28 23:37:00,73.3,65.3,29.59,WSW,245,0.0,3.0,76,0.00,,SKC,0.00,0.00,VWS V14.01,2013-06-29 03:37:00,
2013-06-28 23:39:00,73.2,65.2,29.59,WSW,245,1.0,3.0,76,0.00,,SKC,0.00,0.00,VWS V14.01,2013-06-29 03:39:00,
2013-06-28 23:40:00,73.1,65.1,29.59,WSW,245,1.0,3.0,76,0.00,,SKC,0.00,0.00,VWS V14.01,2013-06-29 03:40:00,
2013-06-28 23:41:00,73.1,65.1,29.59,WSW,246,0.0,3.0,76,0.00,,SKC,0.00,0.00,VWS V14.01,2013-06-29 03:41:00,
2013-06-28 23:43:00,73.0,65.4,29.59,WSW,246,0.0,3.0,77,0.00,,SKC,0.00,0.00,VWS V14.01,2013-06-29 03:43:00,
2013-06-28 23:44:00,72.9,65.3,29.59,WSW,246,0.0,3.0,77,0.00,,SKC,0.00,0.00,VWS V14.01,2013-06-29 03:44:00,
2013-06-28 23:45:00,72.9,65.3,29.59,WSW,246,0.0,3.0,77,0.00,,SKC,0.00,0.00,VWS V14.01,2013-06-29 03:45:00,
2013-06-28 23:46:00,72.8,65.2,29.58,WSW,246,0.0,3.0,77,0.00,,SKC,0.00,0.00,VWS V14.01,2013-06-29 03:46:00,
2013-06-28 23:48:00,72.8,65.2,29.59,WSW,246,0.0,3.0,77,0.00,,SKC,0.00,0.00,VWS V14.01,2013-06-29 03:48:00,
2013-06-28 23:49:00,72.7,65.1,29.59,WSW,246,0.0,3.0,77,0.00,,SKC,0.00,0.00,VWS V14.01,2013-06-29 03:49:00,
2013-06-28 23:50:00,72.7,65.1,29.59,WSW,246,0.0,3.0,77,0.00,,SKC,0.00,0.00,VWS V14.01,2013-06-29 03:50:00,
2013-06-28 23:51:00,72.6,65.0,29.59,WSW,246,0.0,3.0,77,0.00,,SKC,0.00,0.00,VWS V14.01,2013-06-29 03:51:00,
2013-06-28 23:52:00,72.6,65.0,29.59,WSW,246,0.0,3.0,77,0.00,,SKC,0.00,0.00,VWS V14.01,2013-06-29 03:52:00,
2013-06-28 23:54:00,72.6,65.0,29.59,WSW,246,0.0,3.0,77,0.00,,SKC,0.00,0.00,VWS V14.01,2013-06-29 03:54:00,
2013-06-28 23:55:00,72.5,64.9,29.59,WSW,246,0.0,3.0,77,0.00,,SKC,0.00,0.00,VWS V14.01,2013-06-29 03:55:00,
2013-06-28 23:56:00,72.5,64.9,29.59,WSW,246,0.0,3.0,77,0.00,,SKC,0.00,0.00,VWS V14.01,2013-06-29 03:56:00,
2013-06-28 23:57:00,72.5,64.9,29.59,WSW,246,0.0,3.0,77,0.00,,SKC,0.00,0.00,VWS V14.01,2013-06-29 03:57:00,
2013-06-28 23:59:00,72.4,64.8,29.59,WSW,246,0.0,3.0,77,0.00,,SKC,0.00,0.00,VWS V14.01,2013-06-29 03:59:00,